GEFSSGP_con_cape1000_000.txt.gz
Probability
97 100 100 100 3 0 0 0 0 0 0 0 0 0 0 0 0 0 10 16 16 13 84 100 100 100 100 100 100 100 100 100 100 100 100 100 100 100 100 100 100 100 97 87 100 100 100 100 100
100 100 100 90 0 0 0 0 0 0 0 0 0 0 0 0 0 0 19 32 45 10 94 100 100 100 100 100 100 100 100 100 100 100 100 97 100 100 100 100 100 100 100 97 100 100 100 100 100
100 84 35 0 0 0 0 0 0 0 0 0 0 0 0 0 0 0 10 0 16 6 87 100 100 100 100 100 100 100 100 100 100 100 94 97 100 100 100 100 100 100 100 100 100 100 100 100 100
87 97 61 0 0 0 0 0 0 0 0 0 0 0 0 0 0 0 16 13 0 6 100 100 100 100 100 100 100 100 100 100 100 100 100 100 100 100 100 100 100 100 100 100 100 100 100 100 100
3 65 0 0 0 0 0 0 0 0 0 0 0 0 0 0 0 0 29 29 26 61 100 100 100 100 100 100 100 100 100 100 100 100 100 100 100 100 100 100 100 100 87 81 100 100 100 100 100
3 0 3 0 0 0 0 0 0 0 0 0 0 0 0 0 0 19 32 61 81 97 100 100 100 100 100 100 100 100 100 100 100 100 100 100 100 100 100 100 100 58 6 45 100 100 100 100 100
39 0 3 0 0 0 0 0 0 0 0 0 0 0 0 0 10 23 45 84 87 100 100 100 100 100 100 100 100 100 100 100 100 100 100 100 100 100 97 90 26 0 0 94 100 100 100 100 100
6 0 0 0 0 0 0 0 0 0 0 0 0 0 0 0 16 61 87 87 87 84 68 100 97 100 100 100 100 100 100 100 100 100 100 100 100 100 94 19 6 6 81 97 100 100 100 100 100
10 0 0 0 0 0 0 0 0 0 0 0 0 0 0 6 42 74 81 65 71 39 16 35 97 100 100 100 100 100 100 100 100 100 100 100 100 97 87 77 87 94 100 100 100 100 97 87 90
100 0 0 0 0 0 0 0 0 0 0 0 0 0 13 26 45 48 29 16 39 39 32 45 58 100 100 100 100 100 100 100 100 61 61 71 65 97 87 84 97 100 100 100 100 100 32 10 0
3 13 0 0 0 0 0 0 0 0 0 0 0 0 23 19 19 16 13 10 32 32 65 74 48 68 90 94 84 100 100 100 97 39 19 10 10 26 68 55 84 100 94 3 10 0 0 0 0
3 0 0 0 0 0 0 0 0 0 0 0 0 0 16 26 19 10 3 6 26 71 94 90 55 65 55 55 74 39 100 100 94 65 19 0 0 0 0 0 13 6 0 0 0 0 0 0 0
0 0 3 0 0 0 0 0 0 0 0 0 0 0 13 3 0 13 3 0 16 84 97 90 61 42 42 42 39 32 61 90 97 100 55 32 0 0 0 0 3 0 0 0 0 0 0 0 0
0 0 0 0 0 0 0 0 0 0 0 0 0 0 0 0 0 0 6 10 16 61 81 94 71 29 29 39 52 23 58 71 71 74 39 16 0 0 0 0 0 0 0 0 0 0 0 0 0
0 0 0 0 0 0 0 0 0 0 0 0 0 0 0 0 0 3 3 16 29 58 77 81 77 29 29 39 32 10 29 23 10 16 10 6 0 0 0 0 0 0 0 0 0 0 0 0 0
0 0 0 0 0 0 0 0 0 0 0 0 0 0 0 6 13 6 3 16 45 74 94 84 68 45 42 52 32 16 10 10 6 10 3 3 0 0 0 0 0 0 0 0 0 0 0 0 0
0 0 0 0 0 0 0 0 0 0 0 0 0 0 0 3 35 32 39 55 68 97 100 100 100 100 84 74 52 29 13 39 42 16 10 6 0 0 0 0 0 0 0 0 0 0 0 0 0
0 0 0 0 0 0 0 0 0 0 0 0 0 0 0 0 26 35 45 65 68 81 100 100 100 100 100 97 71 77 87 77 94 94 84 68 0 0 0 0 0 0 0 0 0 0 0 0 0
0 0 0 0 0 0 0 0 0 0 0 0 0 0 0 0 16 29 39 65 81 65 58 87 100 100 100 100 100 68 61 87 100 100 97 100 42 3 19 0 0 0 0 0 0 19 0 0 0
0 0 0 0 0 0 0 0 0 0 0 0 0 0 0 0 3 29 71 71 90 97 81 94 100 71 77 90 100 100 100 100 100 97 100 94 26 0 0 6 6 0 0 10 0 6 87 0 0
0 0 0 0 0 0 0 0 0 0 0 0 0 0 0 0 3 6 10 35 71 100 100 100 97 77 90 100 94 90 81 94 94 100 97 39 3 0 0 10 26 13 0 71 84 71 10 0 0
0 0 0 0 0 0 0 0 0 0 0 0 0 0 0 0 3 3 3 23 61 94 100 100 100 100 94 94 90 90 100 100 29 94 100 74 19 10 16 3 6 6 32 13 84 68 84 42 0
0 0 0 0 0 0 0 0 0 0 0 0 0 0 0 3 3 3 0 0 23 61 94 97 100 100 100 100 100 100 100 97 94 94 90 32 19 19 26 23 3 0 6 23 42 61 97 45 0
0 0 0 0 0 0 0 0 0 0 0 0 0 0 0 0 3 0 0 0 6 58 90 94 100 100 100 100 100 100 100 100 94 58 26 10 10 55 16 16 6 3 3 19 23 10 61 87 29
0 0 0 0 0 0 0 0 0 0 0 0 0 0 0 0 3 6 16 39 71 84 94 97 100 100 100 100 100 100 100 74 42 10 6 10 0 3 0 0 10 23 13 0 0 0 10 26 90
0 0 0 0 0 0 0 0 0 0 0 0 0 0 0 0 0 29 55 84 100 94 94 97 100 100 100 100 100 100 100 77 26 16 23 10 0 0 0 39 23 58 10 0 0 0 0 0 45
0 0 0 0 0 0 0 0 0 0 0 0 0 0 0 0 0 58 97 97 100 100 97 97 100 100 100 97 97 94 65 65 77 58 39 10 0 0 0 3 0 0 0 0 0 0 0 0 10
0 0 0 0 0 0 0 0 0 0 0 0 0 0 0 0 0 13 71 100 100 100 100 100 97 100 100 100 97 94 61 77 74 23 29 3 0 0 0 0 0 0 0 0 0 0 0 0 0
0 0 0 0 0 0 0 0 0 0 0 0 0 0 0 0 0 0 16 84 97 100 100 100 100 100 100 100 100 97 84 42 23 32 26 10 0 0 6 0 0 0 0 0 0 0 0 0 0
0 0 0 0 0 0 0 0 0 0 0 0 0 0 0 0 0 0 0 10 77 97 100 100 100 100 100 100 100 97 87 74 29 3 32 35 3 0 0 0 0 0 0 0 0 0 0 0 0

GEFSSGP_con_cape1000_006.txt.gz
Probability
100 100 100 100 100 81 0 0 0 0 0 0 0 0 0 0 0 13 23 3 10 100 100 100 100 100 100 100 100 100 100 100 100 100 100 100 100 100 100 97 74 42 84 100 100 100 100 100 100
100 100 100 100 90 0 0 0 0 0 0 0 0 0 0 0 0 0 6 19 23 100 100 100 100 100 100 100 100 100 100 97 100 100 94 94 100 100 100 100 100 81 94 100 100 100 100 100 100
100 100 100 100 0 0 0 0 0 0 0 0 0 0 0 0 0 0 10 0 6 100 97 100 100 100 100 100 100 100 100 100 100 97 65 84 97 100 100 97 65 29 97 100 100 100 100 100 100
100 100 100 77 0 0 0 0 0 0 0 0 0 0 0 0 0 0 0 0 10 100 100 100 100 100 100 100 100 100 100 100 100 81 65 90 100 100 100 97 68 42 84 100 100 100 100 100 100
100 100 97 0 0 0 0 0 0 0 0 0 0 0 0 0 0 0 0 0 10 97 100 100 100 100 100 100 100 100 100 100 100 84 97 100 100 100 100 100 74 19 58 94 100 100 100 100 100
100 100 6 0 0 0 0 0 0 0 0 0 0 0 0 0 0 0 0 0 19 100 100 97 100 100 100 100 100 100 100 100 100 100 100 100 97 94 97 100 23 0 23 77 94 100 100 100 97
100 100 3 0 0 0 0 0 0 0 0 0 0 0 0 0 0 0 0 6 48 94 100 97 87 100 100 100 100 100 100 100 100 100 100 100 100 97 100 48 0 0 52 94 100 100 100 84 26
100 100 0 0 0 0 0 0 0 0 0 0 0 0 0 0 0 0 0 19 94 94 97 97 84 52 35 100 100 100 100 100 100 100 100 100 100 94 52 3 0 3 26 71 87 81 26 3 0
81 77 0 0 0 0 0 0 0 0 0 0 0 0 0 0 0 0 3 10 52 100 68 48 81 58 23 29 90 100 100 100 100 100 100 100 61 6 6 0 0 0 6 71 35 16 3 0 0
71 100 0 0 0 0 0 0 0 0 0 0 0 0 3 3 3 3 0 0 0 10 32 19 29 52 39 61 77 100 81 77 45 16 52 94 19 0 0 0 16 26 74 68 13 6 6 3 0
6 6 10 0 0 0 0 0 0 0 0 0 0 0 3 3 3 3 0 0 0 0 3 16 13 16 29 71 61 94 100 87 55 10 6 19 0 0 0 0 35 19 23 0 0 6 0 0 0
23 0 0 0 0 0 0 0 0 0 0 0 0 3 3 3 3 0 0 0 0 0 0 0 10 3 10 23 16 32 48 48 52 48 6 3 0 0 0 0 0 0 0 0 0 0 0 0 0
0 0 0 0 0 0 0 0 0 0 0 0 0 3 3 0 0 0 0 0 0 10 13 3 3 6 0 61 81 29 29 6 6 71 19 0 0 0 0 0 0 0 0 0 0 0 0 0 0
0 0 0 0 0 0 0 0 0 0 0 0 0 0 0 0 0 0 0 0 0 13 29 39 13 13 13 61 16 16 19 87 6 16 3 0 0 0 0 0 3 0 0 0 0 0 0 0 0
0 0 0 0 0 0 0 0 0 0 0 0 0 0 0 0 0 0 0 0 0 13 26 65 52 32 35 58 23 6 16 3 6 10 0 0 0 0 0 0 0 0 0 0 0 0 0 0 0
0 0 0 0 0 0 0 0 0 0 0 0 0 0 0 0 0 0 0 0 0 10 23 87 71 55 48 74 90 48 58 13 6 3 0 0 0 0 0 0 0 0 0 0 0 0 0 0 0
0 0 0 0 0 0 0 0 0 0 0 0 0 0 0 0 0 0 0 0 0 10 19 100 90 81 97 100 100 97 58 55 23 10 6 6 0 0 0 0 0 0 0 0 0 0 0 0 0
0 0 0 0 0 0 0 0 0 0 0 0 0 0 0 0 0 0 0 0 3 10 19 97 100 100 100 100 100 97 90 58 52 39 58 6 3 0 0 0 0 0 0 0 0 0 3 0 0
0 0 0 0 0 0 0 0 0 0 0 0 0 0 0 0 0 0 10 29 32 32 35 100 100 100 100 100 100 100 97 90 81 94 84 71 55 10 0 0 0 0 0 3 0 3 0 0 0
0 0 0 0 0 0 0 0 0 0 0 0 0 0 0 0 6 42 55 71 61 68 71 90 100 100 100 100 100 100 97 74 84 90 94 77 61 29 6 0 0 0 3 10 6 0 0 0 0
0 0 0 0 0 0 0 0 0 0 0 0 0 0 0 0 13 42 61 71 100 100 94 87 100 100 100 100 100 100 100 87 84 100 100 90 90 58 48 6 0 0 3 3 0 0 0 0 0
0 0 0 0 0 0 0 0 0 0 0 0 0 0 0 0 6 42 84 87 84 94 90 94 100 97 97 100 100 100 100 90 77 94 97 100 100 94 87 55 16 0 0 3 0 0 0 0 0
0 0 0 0 0 0 0 0 0 0 0 0 0 0 0 0 13 81 87 87 81 81 90 90 100 100 100 100 100 100 100 97 90 97 94 100 100 90 84 55 19 0 0 0 3 3 3 0 0
0 0 0 0 0 0 0 0 0 0 0 0 0 0 0 3 58 81 84 90 94 97 97 97 100 100 100 100 100 100 100 100 94 94 100 100 100 100 94 68 42 13 0 0 0 6 6 0 0
0 0 0 0 0 0 0 0 0 0 0 0 0 0 0 6 48 61 71 87 100 100 100 97 100 100 100 100 100 97 97 97 87 68 61 68 68 81 65 74 42 29 6 0 0 0 0 0 0
0 0 0 0 0 0 0 0 0 0 0 0 0 0 3 23 58 48 87 100 100 100 100 100 100 100 100 100 97 81 84 81 45 23 45 35 29 29 19 13 23 16 6 3 0 0 0 0 0
0 0 0 0 0 0 0 0 0 0 0 0 0 0 0 32 68 74 94 100 100 100 100 100 100 100 100 97 77 45 35 61 23 10 35 26 10 6 0 0 6 16 10 3 0 0 0 0 0
0 0 0 0 0 0 0 0 0 0 0 0 0 0 3 13 32 55 94 100 100 100 100 100 100 100 100 87 39 58 58 32 19 13 32 13 3 3 0 0 3 0 0 0 0 0 0 0 0
0 0 0 0 0 0 0 0 0 0 0 0 0 0 0 0 0 6 19 71 97 100 100 100 100 97 97 81 65 81 58 42 26 6 42 29 10 3 0 0 0 0 0 0 0 0 0 0 0
0 0 0 0 0 0 0 0 0 0 0 0 0 0 0 0 0 0 0 13 77 97 100 100 100 100 100 90 97 100 100 77 61 19 35 29 16 3 0 0 0 0 3 0 0 0 0 0 0

GEFSSGP_con_cape1000_012.txt.gz
Probability
100 100 100 94 0 0 0 0 0 0 0 0 0 0 0 0 0 0 0 3 3 16 100 100 100 100 100 100 100 100 100 100 100 100 100 100 97 94 77 84 97 100 100 100 100 100 100 100 100
100 100 94 32 0 0 0 0 0 0 0 0 0 0 0 0 0 0 0 19 6 26 100 100 100 100 100 100 100 100 100 100 100 100 100 100 100 100 100 100 100 100 100 100 100 100 100 100 100
100 100 65 0 0 0 0 0 0 0 0 0 0 0 0 0 0 0 10 19 10 39 97 100 100 100 100 100 100 100 100 100 100 100 100 100 100 100 94 97 97 100 100 100 100 100 100 100 100
97 6 0 0 0 0 0 0 0 0 0 0 0 0 0 0 0 0 42 39 13 13 74 100 100 100 100 100 100 100 100 100 97 97 100 100 100 100 90 90 90 100 100 100 100 100 100 94 84
42 0 0 0 0 0 0 0 0 0 0 0 0 0 0 0 0 16 65 42 13 23 87 100 100 100 100 100 100 100 100 100 97 97 100 100 100 100 97 81 77 100 94 94 100 100 65 23 29
0 0 0 0 0 0 0 0 0 0 0 0 0 0 0 0 0 13 58 55 29 55 87 100 100 100 100 100 100 100 100 100 97 100 100 100 100 100 94 48 58 68 65 81 94 84 26 3 0
3 0 0 0 0 0 0 0 0 0 0 0 0 0 0 0 0 10 48 58 39 39 58 100 100 100 100 100 100 100 100 100 100 100 100 100 100 97 81 19 19 68 97 90 71 45 3 0 0
0 0 0 0 0 0 0 0 0 0 0 0 0 0 0 0 0 6 26 19 23 10 26 84 87 94 100 100 100 100 100 100 100 100 100 100 100 94 48 3 35 84 94 68 42 0 0 0 0
0 0 0 0 0 0 0 0 0 0 0 0 0 0 0 0 0 3 3 3 10 6 0 19 19 16 16 42 100 100 100 100 100 100 100 100 48 26 10 0 23 61 48 35 19 3 0 0 0
0 0 0 0 0 0 0 0 0 0 0 0 0 0 0 0 0 0 0 0 3 6 3 3 3 3 3 6 35 26 97 100 100 84 94 0 0 0 0 0 16 19 26 13 6 3 3 0 0
0 0 0 0 0 0 0 0 0 0 0 0 0 0 0 0 0 0 0 0 0 0 6 0 0 3 0 0 0 0 13 19 3 3 0 0 0 0 0 0 0 0 6 0 0 0 0 0 0
0 0 0 0 0 0 0 0 0 0 0 0 0 0 0 0 0 0 0 0 0 0 3 6 0 0 0 0 0 0 3 0 3 0 0 0 0 0 0 0 0 0 0 0 0 0 0 0 0
0 0 0 0 0 0 0 0 0 0 0 0 0 0 0 0 0 0 0 0 3 0 0 3 3 0 0 0 0 0 0 0 0 0 0 0 0 0 0 0 0 0 0 0 0 0 0 0 0
0 0 0 0 0 0 0 0 0 0 0 0 0 0 0 0 0 0 0 0 0 3 0 3 0 0 0 0 0 0 0 0 0 0 0 0 0 0 0 0 0 0 0 0 0 0 0 0 0
0 0 0 0 0 0 0 0 0 0 0 0 0 0 0 0 0 0 0 0 0 0 0 3 0 0 0 0 0 0 0 0 0 0 0 0 0 0 0 0 0 0 0 0 0 0 0 0 0
0 0 0 0 0 0 0 0 0 0 0 0 0 0 0 0 0 0 0 0 0 0 0 3 6 0 0 0 0 0 0 0 0 0 0 0 0 0 0 0 0 0 0 0 0 0 0 0 0
0 0 0 0 0 0 0 0 0 0 0 0 0 0 0 0 0 0 0 0 0 0 0 3 3 0 0 0 0 0 0 0 0 0 0 0 0 0 0 0 0 0 0 0 0 0 0 0 0
0 0 0 0 0 0 0 0 0 0 0 0 0 0 0 0 0 0 0 0 0 0 0 6 3 0 0 0 0 0 0 0 0 0 0 0 0 0 0 0 0 0 0 0 0 0 0 0 0
0 0 0 0 0 0 0 0 0 0 0 0 0 0 0 0 0 0 0 0 0 3 3 10 3 3 0 0 0 0 0 0 0 0 0 0 0 0 0 0 0 0 0 0 0 0 0 0 0
0 0 0 0 0 0 0 0 0 0 0 0 0 0 0 0 0 0 0 0 3 13 19 26 13 3 3 0 0 0 0 0 0 0 0 0 0 0 0 0 0 0 0 0 0 0 0 0 0
0 0 0 0 0 0 0 0 0 0 0 0 0 0 0 0 0 0 0 0 6 19 55 71 65 35 13 6 0 0 0 0 0 0 0 0 0 0 0 0 0 0 0 0 0 0 0 0 0
0 0 0 0 0 0 0 0 0 0 0 0 0 0 0 0 0 3 3 6 29 58 90 97 87 68 55 26 13 6 0 0 0 0 0 0 0 0 0 0 0 0 0 0 0 0 0 0 0
0 0 0 0 0 0 0 0 0 0 0 0 0 0 0 0 0 10 19 42 65 97 97 87 81 81 81 68 52 29 0 0 0 0 0 0 0 0 0 0 0 0 0 0 0 0 0 0 0
0 0 0 0 0 0 0 0 0 0 0 0 0 0 0 0 16 32 32 42 65 81 87 65 58 61 65 74 68 45 19 0 0 0 0 0 0 0 0 0 0 0 0 0 0 0 0 0 0
0 0 0 0 0 0 0 0 0 0 0 0 0 0 0 3 26 23 26 26 42 65 71 58 58 68 71 81 71 52 13 6 0 0 0 0 0 0 0 0 0 0 0 0 0 0 0 0 0
0 0 0 0 0 0 0 0 0 0 0 0 0 0 0 0 13 23 23 23 26 45 74 87 90 97 90 77 81 42 23 6 0 0 0 0 0 0 0 0 0 0 0 0 0 0 0 0 0
0 0 0 0 0 0 0 0 0 0 0 0 0 0 0 0 3 10 16 23 26 52 74 87 94 97 84 77 55 35 19 16 6 0 0 0 0 0 0 0 0 0 0 0 0 0 0 0 0
0 0 0 0 0 0 0 0 0 0 0 0 0 0 0 0 0 6 6 16 19 48 55 71 97 97 81 71 42 32 10 10 0 0 0 0 0 0 0 0 0 0 0 0 0 0 0 0 0
0 0 0 0 0 0 0 0 0 0 0 0 0 0 0 0 0 0 3 10 23 52 58 68 77 81 68 52 29 16 6 0 0 0 0 0 0 0 0 0 0 0 0 0 0 0 0 0 0
0 0 0 0 0 0 0 0 0 0 0 0 0 0 0 0 0 0 0 3 19 42 55 68 71 61 55 35 19 10 0 0 0 0 0 0 0 0 0 0 0 0 0 0 0 0 0 0 0

GEFSSGP_con_cape1000_018.txt.gz
Probability
100 100 74 0 0 0 0 0 0 0 0 0 0 0 0 0 0 0 0 0 0 0 84 100 100 100 100 100 100 100 100 100 100 100 100 94 90 87 90 94 97 97 97 100 100 100 100 100 100
100 100 6 0 0 0 0 0 0 0 0 0 0 0 0 0 0 0 0 3 0 10 97 100 100 100 100 100 100 100 100 100 100 100 100 97 94 90 94 94 87 87 87 94 100 100 100 100 100
97 74 0 0 0 0 0 0 0 0 0 0 0 0 0 0 0 0 0 0 0 39 97 100 100 100 100 100 100 100 100 100 100 100 97 100 100 97 90 90 90 81 90 94 100 100 100 100 100
6 0 0 0 0 0 0 0 0 0 0 0 0 0 0 0 0 0 0 0 0 52 100 100 100 100 100 100 100 100 100 100 100 100 100 100 94 74 61 74 90 74 52 48 87 90 94 97 100
0 0 0 0 0 0 0 0 0 0 0 0 0 0 0 0 0 0 0 0 0 48 97 100 100 100 100 100 100 100 100 100 100 100 100 100 90 48 39 61 77 74 42 16 32 32 35 81 90
0 0 0 0 0 0 0 0 0 0 0 0 0 0 0 0 0 0 0 0 0 32 90 100 100 100 100 100 100 100 100 100 100 100 100 100 94 77 39 42 61 58 26 6 13 6 6 13 35
0 0 0 0 0 0 0 0 0 0 0 0 0 0 0 0 0 0 0 0 0 16 68 97 100 100 100 100 100 100 100 100 97 100 100 100 97 84 29 19 16 13 6 3 0 0 0 0 10
0 0 0 0 0 0 0 0 0 0 0 0 0 0 0 0 0 0 0 0 0 0 39 71 94 100 100 100 100 100 100 100 100 100 100 100 97 77 23 6 0 0 0 0 0 0 0 0 10
0 0 0 0 0 0 0 0 0 0 0 0 0 0 0 0 0 0 0 0 0 0 10 26 39 42 55 74 100 100 100 100 100 100 100 100 42 6 3 0 10 0 0 0 0 0 0 0 13
0 0 0 0 0 0 0 0 0 0 0 0 0 0 0 0 3 6 0 0 0 0 0 3 3 0 3 65 87 81 100 94 84 58 61 0 0 0 0 0 3 0 0 0 0 0 0 0 0
0 0 0 0 0 0 0 0 0 0 0 0 0 0 0 3 19 10 3 0 0 0 0 3 0 0 0 0 0 3 6 0 3 0 0 0 0 0 0 0 0 0 0 0 0 0 0 0 0
0 0 0 0 0 0 0 0 0 0 0 0 0 0 0 3 16 10 0 0 0 0 0 0 0 0 0 0 0 0 0 0 0 0 0 0 0 0 0 0 0 0 0 0 0 0 0 0 0
0 0 0 0 0 0 0 0 0 0 0 0 0 0 0 3 6 0 0 0 0 0 0 0 0 0 0 0 0 0 0 3 0 0 0 0 0 0 0 0 0 0 0 0 0 0 0 0 0
0 0 0 0 0 0 0 0 0 0 0 0 0 0 0 3 3 0 0 0 0 0 0 0 0 0 0 0 0 0 0 0 0 0 0 0 0 0 0 0 0 0 0 0 0 0 0 0 0
0 0 0 0 0 0 0 0 0 0 0 0 0 0 0 0 0 0 0 0 0 3 0 0 0 0 0 0 0 0 0 0 0 0 0 0 0 0 0 0 0 0 0 0 0 0 0 0 0
0 0 0 0 0 0 0 0 0 0 0 0 0 0 0 0 0 0 0 0 0 3 3 6 32 0 0 0 0 0 0 0 0 0 0 0 0 0 0 0 0 0 0 0 0 0 0 0 0
0 0 0 0 0 0 0 0 0 0 0 0 0 0 0 0 0 0 3 3 0 6 6 13 26 13 0 0 0 0 0 0 0 0 0 0 0 0 0 0 0 0 0 0 0 0 0 0 0
0 0 0 0 0 0 0 0 0 0 0 0 0 0 0 0 0 0 3 3 0 0 10 16 16 19 3 0 0 0 0 0 0 0 0 0 0 0 0 0 0 0 0 0 0 0 0 0 0
0 0 0 0 0 0 0 0 0 0 0 0 0 0 0 0 0 0 0 0 0 0 6 13 16 10 3 0 0 0 0 0 0 0 0 0 0 0 0 0 0 0 0 0 0 0 0 0 0
0 0 0 0 0 0 0 0 0 0 0 0 0 0 0 0 0 0 0 0 0 0 6 16 16 6 3 0 0 0 0 0 0 0 0 0 0 0 0 0 0 0 0 0 0 0 0 0 0
0 0 0 0 0 0 0 0 0 0 0 0 0 0 0 0 0 0 0 0 0 0 0 13 19 6 3 0 0 0 0 0 0 0 0 0 0 0 0 0 0 0 0 0 0 0 0 0 0
0 0 0 0 0 0 0 0 0 0 0 0 0 0 0 0 0 0 0 0 0 0 0 10 10 6 3 0 0 0 0 0 0 0 0 0 0 0 0 0 0 0 0 0 0 0 0 0 0
0 0 0 0 0 0 0 0 0 0 0 0 0 0 0 0 3 0 3 3 6 6 0 0 6 3 3 0 0 0 0 0 0 0 0 0 0 0 0 0 0 0 0 0 0 0 0 0 0
0 0 0 0 0 0 0 0 0 0 0 0 0 0 0 0 0 0 6 13 23 23 23 3 3 3 0 0 0 0 0 0 0 0 0 0 0 0 0 0 0 0 0 0 0 0 0 0 0
0 0 0 0 0 0 0 0 0 0 0 0 0 0 0 0 0 0 0 6 13 10 10 3 3 0 0 0 0 0 0 0 0 0 0 0 0 0 0 0 0 0 0 0 0 0 0 0 0
0 0 0 0 0 0 0 0 0 0 0 0 0 0 0 0 0 0 0 3 3 3 3 3 3 3 0 0 0 0 0 0 0 0 0 0 0 0 0 0 0 0 0 0 0 0 0 0 0
0 0 0 0 0 0 0 0 0 0 0 0 0 0 0 0 0 0 0 3 0 0 0 0 0 0 0 0 0 0 0 0 0 0 0 0 0 0 0 0 0 0 0 0 0 0 0 0 0
0 0 0 0 0 0 0 0 0 0 0 0 0 0 0 0 0 0 0 0 0 0 0 3 3 0 0 0 0 0 0 0 0 0 0 0 0 0 0 0 0 0 0 0 0 0 0 0 0
0 0 0 0 0 0 0 0 0 0 0 0 0 0 0 0 0 0 0 0 0 0 0 3 3 0 0 0 0 0 0 0 0 0 0 0 0 0 0 0 0 0 0 0 0 0 0 0 0
0 0 0 0 0 0 0 0 0 0 0 0 0 0 0 0 0 0 0 0 0 0 0 3 3 3 0 10 3 0 0 0 0 0 0 0 0 0 0 0 0 0 0 0 0 0 0 0 0

GEFSSGP_con_cape1000_024.txt.gz
Probability
100 100 100 90 3 0 0 0 0 0 0 0 0 0 0 0 0 0 19 0 0 77 100 100 100 100 100 100 100 100 100 100 100 97 97 87 84 74 77 74 84 90 97 100 100 97 100 100 100
100 100 90 6 0 0 0 0 0 0 0 0 0 0 0 0 0 0 0 0 3 65 100 100 100 100 100 100 100 100 100 100 100 100 94 81 81 81 81 77 77 90 94 97 97 97 97 100 100
100 90 52 0 0 0 0 0 0 0 0 0 0 0 0 0 0 0 0 0 3 65 97 100 100 100 100 100 100 100 100 100 100 97 87 81 81 81 71 68 68 84 94 97 97 97 97 100 100
94 45 0 0 0 0 0 0 0 0 0 0 0 0 0 0 0 0 0 0 3 35 81 100 100 100 100 100 100 100 100 100 100 100 94 94 84 74 68 61 52 58 77 94 97 97 97 97 97
58 3 0 0 0 0 0 0 0 0 0 0 0 0 0 0 0 0 10 0 3 6 35 100 100 100 100 100 100 100 100 100 100 100 97 87 74 58 61 61 52 48 45 39 58 71 77 97 100
35 0 0 0 0 0 0 0 0 0 0 0 0 0 0 3 0 3 6 10 3 6 16 97 100 100 100 100 100 100 100 100 100 100 100 87 61 39 55 65 65 45 32 23 13 23 26 68 100
10 0 0 0 0 0 0 0 0 0 0 0 0 0 0 3 10 3 13 10 3 3 6 74 100 100 100 100 100 100 100 100 100 100 100 100 87 52 42 48 52 23 13 3 0 3 13 42 84
23 0 0 0 0 0 0 0 0 0 0 0 0 0 0 10 29 19 16 16 6 0 0 13 84 97 100 100 100 100 100 100 100 100 100 100 90 48 23 32 10 3 0 0 0 0 6 45 74
10 0 0 0 0 0 0 0 0 0 0 0 0 0 0 10 19 26 19 16 10 0 0 0 26 65 94 100 97 100 100 100 100 100 100 100 87 39 13 0 3 3 0 0 0 0 3 16 71
23 0 0 0 0 0 0 0 0 0 0 0 0 0 0 32 32 23 16 19 16 0 0 3 16 48 84 94 100 100 94 100 97 100 100 100 42 16 3 0 0 0 0 0 0 0 0 0 3
13 0 0 0 0 0 0 0 0 0 0 0 0 0 23 23 29 26 13 3 3 16 16 10 23 29 68 100 100 100 100 100 100 94 97 77 13 6 0 0 3 0 0 0 3 0 0 0 0
0 0 0 0 0 0 0 0 0 0 0 0 0 0 23 23 35 39 13 0 3 13 26 23 16 16 45 97 100 100 100 100 100 84 29 29 10 0 0 0 0 6 0 0 0 0 0 0 0
0 0 0 0 0 0 0 0 0 0 0 0 0 0 16 29 19 16 6 3 0 6 26 32 29 13 16 81 100 100 100 100 87 100 23 10 6 0 0 0 0 0 0 0 0 0 0 0 0
0 0 0 0 0 0 0 0 0 0 0 0 0 0 10 10 6 0 3 3 0 10 13 35 35 23 16 77 100 100 100 100 71 52 19 0 0 0 0 0 0 0 0 0 0 0 0 0 0
0 0 0 0 0 0 0 0 0 0 0 0 0 0 0 3 3 3 3 3 6 3 3 10 32 23 13 13 32 74 100 94 74 55 3 0 0 0 0 0 0 0 0 0 0 0 0 0 0
0 0 0 0 0 0 0 0 0 0 0 0 0 0 3 0 3 3 3 3 3 10 10 16 71 39 35 42 58 81 87 90 74 42 16 0 0 0 0 0 0 0 0 0 0 0 0 0 0
0 0 0 0 0 0 0 0 0 0 0 0 0 0 0 0 0 0 3 3 6 16 39 52 90 90 90 90 97 97 94 97 81 58 35 3 0 6 16 23 13 0 0 0 0 0 0 0 0
0 0 0 0 0 0 0 0 0 0 0 0 0 0 0 0 0 0 0 3 10 29 42 81 100 100 100 100 100 100 97 94 90 74 65 26 35 26 35 74 26 10 10 10 3 0 0 0 0
0 0 0 0 0 0 0 0 0 0 0 0 0 0 0 0 0 0 0 3 6 16 45 74 97 100 100 100 100 100 100 100 97 87 65 90 87 84 87 84 65 71 52 13 6 6 0 6 3
0 0 0 0 0 0 0 0 0 0 0 0 0 0 0 0 0 0 3 10 13 13 23 48 81 100 100 100 100 100 100 100 100 97 94 97 94 94 74 87 84 81 77 52 19 23 35 10 0
0 0 0 0 0 0 0 0 0 0 0 0 0 0 0 0 0 0 0 19 26 29 19 29 42 90 100 100 100 94 97 90 97 94 97 100 97 97 87 77 84 84 74 90 84 52 42 55 3
0 0 0 0 0 0 0 0 0 0 0 0 0 0 0 0 0 0 0 13 23 42 42 23 39 77 97 90 84 74 71 74 74 94 97 94 94 90 90 74 77 61 68 87 74 19 84 87 29
0 0 0 0 0 0 0 0 0 0 0 0 0 0 0 0 0 0 0 10 26 35 45 48 52 84 81 74 55 48 45 45 55 65 65 84 94 90 94 77 68 39 52 35 23 16 29 61 58
0 0 0 0 0 0 0 0 0 0 0 0 0 0 0 0 0 0 0 6 13 35 45 55 71 61 48 45 29 13 6 10 26 32 61 65 87 87 71 65 48 29 23 10 13 16 29 45 29
0 0 0 0 0 0 0 0 0 0 0 0 0 0 0 0 0 0 0 6 6 13 26 39 35 32 19 10 3 0 3 6 13 23 61 65 65 77 71 35 32 16 3 3 3 3 6 19 29
0 0 0 0 0 0 0 0 0 0 0 0 0 0 0 0 0 0 0 3 3 3 16 23 16 13 6 0 0 0 0 3 10 16 32 42 45 52 16 16 10 3 3 0 0 3 0 0 3
0 0 0 0 0 0 0 0 0 0 0 0 0 0 0 0 0 0 0 0 0 3 3 6 3 0 0 0 0 0 0 6 6 13 13 16 13 6 0 3 3 0 0 0 0 3 3 0 0
0 0 0 0 0 0 0 0 0 0 0 0 0 0 0 0 0 0 0 0 0 0 0 0 0 0 0 0 0 0 0 6 3 3 16 13 3 0 3 0 0 0 0 0 0 0 0 0 0
0 0 0 0 0 0 0 0 0 0 0 0 0 0 0 0 0 0 0 0 0 0 0 0 0 0 0 0 3 0 3 10 10 13 16 10 3 3 3 0 0 0 0 0 0 0 0 0 0
0 0 0 0 0 0 0 0 0 0 0 0 0 0 0 0 0 0 0 0 0 0 0 0 0 0 0 3 3 0 0 6 10 16 13 10 6 3 3 0 0 0 0 0 0 0 0 0 0

GEFSSGP_con_cape1000_030.txt.gz
Probability
100 100 100 100 100 58 0 0 0 0 0 0 0 0 0 0 3 52 58 10 87 87 87 100 100 100 100 100 100 100 100 100 100 97 90 87 81 84 87 87 90 94 97 97 97 97 100 100 100
100 100 100 100 97 0 0 0 0 0 0 0 0 0 0 0 0 0 3 55 87 77 77 97 100 100 100 100 100 100 97 97 94 94 94 84 77 71 81 81 90 94 90 90 94 100 100 100 100
100 100 100 100 3 0 0 0 0 0 0 0 0 0 0 0 0 0 0 42 81 52 55 100 100 100 100 100 100 100 97 97 97 90 84 81 81 74 77 74 90 97 97 97 94 97 100 100 100
100 100 100 55 0 0 0 0 0 0 0 0 0 0 0 0 0 0 0 23 77 74 84 100 100 100 100 100 100 100 100 100 94 94 87 81 81 65 61 65 74 84 90 90 97 97 97 100 100
100 100 84 0 0 0 0 0 0 0 0 0 0 0 0 0 0 0 0 16 71 87 90 94 100 100 100 100 100 100 100 97 97 90 94 77 71 65 58 45 48 45 55 58 77 94 97 100 100
100 90 6 0 0 0 0 0 0 0 0 0 0 0 0 0 0 0 0 10 35 90 94 90 100 100 100 100 100 100 100 100 97 94 87 77 61 61 58 55 52 26 13 23 29 55 81 100 100
100 94 23 0 3 0 0 0 0 0 0 0 0 0 0 0 0 0 0 0 0 77 87 84 97 100 100 100 100 100 100 100 100 97 90 74 68 58 58 65 42 19 0 0 10 19 45 87 97
100 100 26 0 10 0 0 0 0 0 0 0 0 0 6 0 0 0 0 0 0 23 87 77 68 94 100 100 100 100 100 100 100 100 100 87 61 58 58 55 35 13 0 0 0 6 23 58 90
52 100 23 3 19 3 0 0 0 0 0 0 0 0 10 0 0 0 0 0 0 0 52 55 42 71 84 94 100 100 100 100 100 100 100 97 55 32 39 45 16 6 0 0 0 0 10 48 77
55 81 0 3 0 0 0 0 0 0 0 0 0 10 10 3 3 0 0 0 0 0 3 45 61 84 90 94 97 94 97 100 97 94 97 90 74 35 6 19 16 3 0 0 0 0 3 29 13
0 10 3 0 0 0 0 0 0 0 0 0 0 3 13 10 6 3 3 0 0 0 0 13 52 84 87 100 90 97 90 94 87 97 84 87 65 16 6 0 0 0 0 0 0 0 0 0 0
0 0 0 0 0 0 0 0 0 0 0 0 0 6 10 10 10 6 6 0 0 0 0 0 13 61 81 97 94 100 94 100 87 87 87 65 55 23 6 0 0 0 0 0 0 0 0 0 0
0 0 0 0 0 0 0 0 0 0 0 0 0 6 13 10 10 10 3 3 0 0 3 0 3 29 52 97 100 97 97 90 87 77 97 65 45 10 6 3 0 0 0 0 0 0 0 0 0
0 0 0 0 0 0 0 0 0 0 0 0 0 3 3 6 6 6 3 0 0 3 6 3 10 6 42 94 97 100 100 100 84 87 87 26 16 10 0 0 0 0 0 0 0 0 0 0 0
0 0 0 0 0 0 0 0 0 0 0 0 0 0 3 3 0 0 0 0 0 0 3 10 19 10 16 58 77 87 100 90 87 77 42 16 6 0 0 0 0 0 0 0 0 0 0 0 0
0 0 0 0 0 0 0 0 0 0 0 0 0 0 3 0 0 3 6 3 0 3 0 3 13 10 10 16 58 52 90 87 74 68 45 6 0 0 3 3 0 0 0 0 0 0 0 0 0
0 0 0 0 0 0 0 0 0 0 0 0 0 0 0 3 0 0 16 10 6 13 3 13 16 13 10 19 45 74 55 97 81 48 42 13 0 3 6 13 3 0 0 0 0 0 0 0 0
0 0 0 0 0 0 0 0 0 0 0 0 0 0 0 0 0 0 10 16 16 16 10 13 23 29 16 45 26 94 87 87 84 74 55 16 13 10 16 3 3 0 0 0 0 0 0 3 3
0 0 0 0 0 0 0 0 0 0 0 0 0 0 0 0 0 3 0 6 13 16 19 26 45 48 74 100 97 100 97 100 94 94 55 55 32 39 32 23 19 16 3 0 0 0 0 0 0
0 0 0 0 0 0 0 0 0 0 0 0 0 0 0 0 0 0 3 3 6 13 26 23 32 61 77 97 97 100 100 94 90 87 84 61 42 39 35 16 29 26 6 10 3 0 0 0 0
0 0 0 0 0 0 0 0 0 0 0 0 0 0 0 0 0 0 0 3 10 10 13 32 42 55 61 87 97 97 94 90 84 74 77 68 55 58 35 26 32 16 16 10 6 6 0 0 0
0 0 0 0 0 0 0 0 0 0 0 0 0 0 0 0 0 0 0 0 6 6 13 23 39 61 65 77 94 90 84 68 65 61 61 52 55 55 45 26 16 13 13 13 0 0 0 0 0
0 0 0 0 0 0 0 0 0 0 0 0 0 0 0 0 0 0 0 0 0 6 16 16 35 45 55 84 84 77 71 58 45 39 29 26 26 35 45 32 13 10 3 3 0 0 0 0 3
0 0 0 0 0 0 0 0 0 0 0 0 0 0 0 0 0 0 0 0 0 6 16 16 32 32 45 52 65 58 42 29 23 13 6 6 13 10 10 16 13 3 0 0 0 0 3 3 0
0 0 0 0 0 0 0 0 0 0 0 0 0 0 0 0 0 0 0 0 0 3 6 10 19 19 23 32 29 32 26 16 3 0 0 0 0 3 6 6 0 0 0 0 3 0 0 0 0
0 0 0 0 0 0 0 0 0 0 0 0 0 0 0 0 0 0 0 0 0 0 0 0 3 3 3 6 3 3 3 3 3 0 0 0 0 0 0 3 0 3 3 0 0 0 0 0 0
0 0 0 0 0 0 0 0 0 0 0 0 0 0 0 0 0 0 0 0 0 0 0 0 3 0 0 0 0 0 0 0 0 0 0 0 0 3 3 3 0 0 3 0 0 0 0 0 0
0 0 0 0 0 0 0 0 0 0 0 0 0 0 0 0 0 0 0 0 0 0 0 0 0 0 0 0 0 0 0 0 0 0 0 0 0 0 3 3 3 0 0 0 0 0 0 0 0
0 0 0 0 0 0 0 0 0 0 0 0 0 0 0 0 0 0 0 0 0 0 0 0 0 0 0 0 0 0 0 0 0 0 0 0 0 0 0 0 0 0 0 0 0 0 0 0 0
0 0 0 0 0 0 0 0 0 0 0 0 0 0 0 0 0 0 0 0 0 0 0 0 0 0 0 0 0 3 3 0 0 3 3 3 3 3 3 3 0 0 0 0 0 0 0 0 0

GEFSSGP_con_cape1000_036.txt.gz
Probability
100 100 100 90 3 0 0 0 0 0 0 0 0 0 0 0 0 0 0 32 19 55 97 100 100 100 100 100 100 100 100 100 97 97 97 97 97 97 97 100 97 100 100 100 100 100 100 97 97
100 100 97 26 0 0 0 0 0 0 0 0 0 0 0 0 0 0 19 29 23 74 100 100 100 100 100 100 100 100 100 100 97 97 97 97 97 97 97 97 97 94 94 94 100 100 100 97 100
97 100 81 10 0 0 0 0 0 0 0 0 0 0 0 0 0 0 16 19 29 77 90 100 100 100 100 100 100 100 100 100 97 94 94 97 97 97 94 97 94 94 94 94 97 100 100 100 100
58 35 3 0 0 0 0 0 0 0 0 0 0 0 0 0 0 23 29 19 19 58 97 100 100 100 100 100 100 100 100 100 97 97 97 94 90 90 94 97 94 94 94 94 94 97 100 100 100
16 3 0 0 0 0 0 0 0 0 0 0 0 0 0 0 19 48 26 10 26 61 97 100 100 100 100 100 100 100 100 100 100 100 100 90 87 84 81 77 71 65 65 71 81 87 97 100 100
0 0 0 0 0 0 0 0 0 0 0 0 0 0 0 0 39 29 16 26 42 71 97 100 100 100 100 100 100 100 100 100 100 97 90 87 87 77 74 61 48 32 32 35 55 84 90 100 100
0 0 0 0 0 0 0 0 0 0 0 0 0 0 0 0 3 6 19 32 45 58 84 100 100 100 100 100 100 100 100 97 100 100 90 87 90 84 81 58 32 13 16 16 35 58 71 90 94
0 0 0 0 0 0 0 0 0 0 0 0 0 0 0 0 0 3 13 61 55 32 74 97 100 100 100 100 100 100 100 100 100 100 94 90 94 84 84 55 42 3 0 6 13 35 52 68 84
0 0 0 0 0 0 0 0 0 0 0 0 0 0 0 0 0 3 32 65 55 35 29 81 90 94 97 100 100 100 100 100 100 100 97 94 58 48 55 42 42 26 0 0 3 16 29 52 68
0 0 0 0 0 0 0 0 0 0 0 0 0 0 0 0 0 6 26 61 58 35 13 10 35 55 74 97 100 97 100 100 100 94 84 39 3 0 23 35 58 39 23 0 0 3 13 23 6
0 0 0 0 0 0 0 0 0 0 0 0 0 0 0 0 0 0 19 52 65 55 29 3 6 13 39 48 81 81 61 74 84 55 45 10 0 0 3 0 32 19 6 0 0 0 0 0 0
0 0 0 0 0 0 0 0 0 0 0 0 0 0 0 0 0 0 0 13 23 45 52 35 10 10 10 19 68 39 32 39 29 16 6 3 0 0 0 0 0 0 0 0 0 0 0 0 0
0 0 0 0 0 0 0 0 0 0 0 0 0 0 0 0 0 0 0 0 0 19 48 39 32 13 13 13 42 19 13 19 10 3 0 3 0 0 0 0 0 0 0 0 0 0 0 0 0
0 0 0 0 0 0 0 0 0 0 0 0 0 0 0 0 0 0 0 0 0 0 3 32 35 32 16 19 16 13 10 10 3 0 0 0 0 0 0 0 0 0 0 0 0 0 0 0 0
0 0 0 0 0 0 0 0 0 0 0 3 3 0 0 0 0 0 0 0 0 0 0 10 32 35 32 26 16 16 6 0 0 0 0 0 0 0 0 0 0 0 0 0 0 0 0 0 0
0 0 0 0 0 0 0 0 0 0 0 0 0 0 0 0 0 0 0 0 0 0 0 6 23 26 23 26 13 16 6 3 3 0 0 0 0 0 0 0 0 0 0 0 0 0 0 0 0
0 0 0 0 0 0 0 0 0 0 0 0 0 0 0 0 0 0 0 0 0 0 0 0 6 6 10 29 19 10 19 10 10 0 0 0 0 0 0 0 0 0 0 0 0 0 0 0 0
0 0 0 0 0 0 0 0 0 0 0 0 0 0 0 0 0 0 0 0 0 0 0 0 0 3 3 3 6 10 13 16 0 0 0 0 0 0 0 0 0 0 0 0 0 0 0 0 0
0 0 0 0 0 0 0 0 0 0 0 0 0 0 0 0 0 0 0 0 0 0 0 0 0 0 3 3 3 6 6 13 3 0 0 0 0 0 0 0 0 0 0 0 0 0 0 0 0
0 0 0 0 0 0 0 0 0 0 0 0 0 0 0 0 0 0 0 0 0 0 0 0 0 0 0 3 3 10 6 3 3 0 0 0 0 0 0 0 0 0 0 0 0 0 0 0 0
0 0 0 0 0 0 0 0 0 0 0 0 0 0 0 0 0 0 0 0 0 0 0 0 0 0 0 0 3 3 3 0 0 0 0 0 0 0 0 0 0 0 0 0 0 0 0 0 0
0 0 0 0 0 0 0 0 0 0 0 0 0 0 0 0 0 0 0 0 0 0 0 0 0 0 0 0 0 3 3 3 3 3 3 0 0 0 0 0 0 0 0 0 0 0 0 0 0
0 0 0 0 0 0 0 0 0 0 0 0 0 0 0 0 0 0 0 0 0 0 0 0 0 0 0 0 0 3 3 3 3 6 3 0 0 0 0 0 0 0 0 0 0 0 0 0 0
0 0 0 0 0 0 0 0 0 0 0 0 0 0 0 0 0 0 0 0 0 0 0 0 0 0 0 0 0 3 6 3 0 0 3 0 0 0 0 0 0 0 0 0 0 0 0 0 0
0 0 0 0 0 0 0 0 0 0 0 0 0 0 0 0 0 0 0 0 0 0 0 0 0 0 0 0 0 0 0 0 3 0 3 0 0 0 0 0 0 0 0 0 0 0 0 0 0
0 0 0 0 0 0 0 0 0 0 0 0 0 0 0 0 0 0 0 0 0 0 0 0 0 0 0 0 0 0 0 0 0 0 0 0 0 0 0 0 0 0 0 0 0 0 0 0 0
0 0 0 0 0 0 0 0 0 0 0 0 0 0 0 0 0 0 0 0 0 0 0 0 0 0 0 0 0 0 0 0 0 0 0 0 0 0 0 0 0 0 0 0 0 0 0 0 0
0 0 0 0 0 0 0 0 0 0 0 0 0 0 0 0 0 0 0 0 0 0 0 0 0 0 0 0 0 0 0 0 0 0 0 0 0 0 0 0 0 0 0 0 0 0 0 0 0
0 0 0 0 0 0 0 0 0 0 0 0 0 0 0 0 0 0 0 0 0 0 0 0 0 0 0 0 0 0 0 0 0 0 0 0 0 0 0 0 0 0 0 0 0 0 0 0 0
0 0 0 0 0 0 0 0 0 0 0 0 0 0 0 0 0 0 0 0 0 0 0 0 0 0 0 0 0 0 0 0 0 0 0 0 0 0 0 0 0 0 0 0 0 0 0 0 0

GEFSSGP_con_cape1000_042.txt.gz
Probability
100 97 81 10 0 0 0 0 0 0 0 0 0 0 0 0 0 0 0 0 0 10 90 100 100 100 100 100 100 100 100 97 94 94 97 97 97 97 97 100 100 100 97 100 100 97 97 97 97
100 94 32 0 0 0 0 0 0 0 0 0 0 0 0 0 0 0 0 0 6 52 97 100 100 100 100 100 100 100 97 94 94 94 94 94 97 97 94 97 90 87 97 97 97 97 97 97 100
100 77 0 0 0 0 0 0 0 0 0 0 0 0 0 0 0 0 3 0 16 61 100 100 100 100 100 100 100 100 97 94 94 90 90 81 77 90 94 94 94 87 87 90 97 97 97 97 97
45 0 0 0 0 0 0 0 0 0 0 0 0 0 0 0 3 3 6 13 32 87 100 100 100 100 100 100 100 100 100 97 94 87 74 74 68 81 84 87 90 87 87 90 94 97 97 97 97
0 0 0 0 0 0 0 0 0 0 0 0 0 0 0 3 10 13 13 19 42 84 97 100 100 100 100 100 100 100 100 97 94 90 77 71 65 65 71 81 81 74 81 74 81 81 90 90 94
0 0 0 0 0 0 0 0 0 0 0 0 0 0 0 19 19 16 10 19 55 77 100 100 100 100 100 100 100 100 100 100 97 94 94 84 71 58 55 52 48 39 42 45 68 81 77 90 90
0 0 0 0 0 0 0 0 0 0 0 0 0 0 0 32 26 13 3 10 45 74 100 100 100 100 100 100 100 100 100 100 100 100 94 84 74 58 45 23 26 23 13 13 45 52 77 87 90
0 0 0 0 0 0 0 0 0 0 0 0 0 0 0 29 26 13 6 10 42 71 87 97 100 100 100 100 100 100 100 100 100 100 100 97 84 68 42 29 23 10 6 6 10 29 45 52 81
0 0 0 0 0 0 0 0 0 0 0 0 0 0 0 6 19 10 16 29 35 48 65 87 97 100 100 100 100 100 100 100 100 100 100 100 71 45 39 39 39 13 3 0 0 6 19 29 29
0 0 0 0 0 0 0 0 0 0 0 0 0 0 3 29 19 19 35 39 39 42 61 84 87 90 90 100 100 100 100 97 97 90 90 48 10 6 29 26 42 26 16 6 3 0 3 0 0
0 0 0 3 0 0 0 0 0 0 0 0 0 0 10 13 13 10 19 26 29 29 48 71 55 68 87 94 81 87 90 87 84 71 55 16 3 0 3 0 10 10 19 0 0 0 0 0 0
0 0 0 0 0 0 0 0 0 0 0 0 0 0 3 3 3 3 3 19 19 13 23 32 52 35 61 71 55 77 68 65 52 35 13 6 3 0 0 0 0 0 0 0 0 0 0 0 0
0 0 0 0 0 0 0 0 0 0 0 0 0 0 0 0 0 0 0 6 10 6 10 13 13 13 19 26 13 68 65 65 55 29 10 6 3 0 0 0 0 0 0 0 0 0 0 0 0
0 0 0 0 0 0 0 0 0 0 0 0 0 0 0 0 0 0 0 0 0 0 3 10 13 6 10 19 13 35 48 29 16 16 6 0 0 0 0 0 0 0 0 0 0 0 0 0 0
0 0 0 0 0 0 0 0 0 0 0 0 0 0 0 0 0 0 0 0 0 0 0 0 6 10 3 6 6 23 26 19 10 6 3 0 0 0 0 0 0 0 0 0 0 0 0 0 0
0 0 0 0 0 0 0 0 0 0 0 0 0 0 0 0 0 0 0 0 0 0 0 0 0 3 6 3 10 13 19 13 3 0 0 0 0 0 0 0 0 0 0 0 0 0 0 0 0
0 0 0 0 0 0 0 0 0 0 0 0 0 0 0 0 0 0 0 0 0 0 0 0 0 0 0 6 10 6 10 3 3 6 0 0 0 0 0 0 0 0 0 0 0 0 0 0 0
0 0 0 0 0 0 0 0 0 0 0 0 0 0 0 0 0 0 0 0 0 0 0 0 0 0 0 0 10 3 6 6 6 6 3 0 0 0 0 0 0 0 0 0 0 0 0 0 0
0 0 0 0 0 0 0 0 0 0 0 0 0 0 0 0 0 0 0 0 0 0 0 0 0 0 0 0 0 10 6 13 13 6 0 0 0 0 0 0 0 0 0 0 0 0 0 0 0
0 0 0 0 0 0 0 0 0 0 0 0 0 0 0 0 0 0 0 0 0 0 0 0 0 0 0 0 0 0 6 6 13 13 6 6 3 0 0 0 0 0 0 0 0 0 0 0 0
0 0 0 0 0 0 0 0 0 0 0 0 0 0 0 0 0 0 0 0 0 0 0 0 0 0 0 0 0 0 0 0 3 10 13 6 3 0 0 0 0 0 0 0 0 0 0 0 0
0 0 0 0 0 0 0 0 0 0 0 0 0 0 0 0 0 0 0 0 0 0 0 0 0 0 0 0 0 0 0 3 6 10 10 10 3 0 0 0 0 0 0 0 0 0 0 0 0
0 0 0 0 0 0 0 0 0 0 0 0 0 0 0 0 0 0 0 0 0 0 0 0 0 0 0 0 0 0 0 3 3 0 0 0 0 0 0 0 0 0 0 0 0 0 0 0 0
0 0 0 0 0 0 0 0 0 0 0 0 0 0 0 0 0 0 0 0 0 0 0 0 0 0 0 0 0 0 0 0 3 0 0 0 0 0 0 0 0 0 0 0 0 0 0 0 0
0 0 0 0 0 0 0 0 0 0 0 0 0 0 0 0 0 0 0 0 0 0 0 0 0 0 0 0 0 0 0 0 6 3 0 0 0 0 0 0 0 0 0 0 0 0 0 0 0
0 0 0 0 0 0 0 0 0 0 0 0 0 0 0 0 0 0 0 0 0 0 0 0 0 0 3 3 0 0 0 0 0 0 0 0 0 0 0 0 0 0 0 0 0 0 0 0 0
0 0 0 0 0 0 0 0 0 0 0 0 0 0 0 0 0 0 0 0 0 0 0 0 0 0 0 0 3 0 0 0 0 0 0 0 0 0 0 0 0 0 0 0 0 0 0 0 0
0 0 0 0 0 0 0 0 0 0 0 0 0 0 0 0 0 0 0 0 0 0 0 0 0 0 0 0 0 0 0 0 0 0 0 0 0 0 0 0 0 0 0 0 0 0 0 0 0
0 0 0 0 0 0 0 0 0 0 0 0 0 0 0 0 0 0 0 0 0 0 0 0 0 3 3 0 0 0 0 0 0 0 0 0 0 0 0 0 0 0 0 0 0 0 0 0 0
0 0 0 0 0 0 0 0 0 0 0 0 0 0 0 0 0 0 0 0 0 0 0 0 0 0 0 0 0 0 0 0 0 0 0 0 0 0 0 0 0 0 0 0 0 0 0 0 0

GEFSSGP_con_cape1000_048.txt.gz
Probability
100 100 100 97 6 0 0 0 0 0 0 0 0 0 0 0 0 13 16 0 0 29 87 100 100 100 100 100 100 100 100 100 100 100 100 100 100 100 100 100 97 97 97 97 97 97 97 97 97
100 100 87 32 0 0 0 0 0 0 0 0 0 0 0 0 10 0 3 0 0 42 90 100 100 100 100 100 100 100 97 97 97 97 97 97 97 97 94 97 94 97 97 97 97 97 97 94 94
100 100 61 0 0 0 0 0 0 0 0 0 0 0 0 0 0 3 10 0 0 35 90 100 100 100 100 100 100 100 97 97 97 97 97 94 94 94 84 84 81 87 90 97 97 97 97 90 94
100 77 16 0 0 0 0 0 0 0 0 0 0 0 0 0 3 13 6 0 6 35 84 100 100 100 100 100 100 100 100 97 97 97 94 90 84 87 77 74 81 84 81 84 97 97 97 94 90
74 29 0 0 0 0 0 0 0 0 0 0 0 0 0 39 42 13 10 3 6 35 71 100 100 100 100 100 100 100 100 100 97 97 84 84 74 71 71 58 71 71 68 74 74 90 94 94 90
55 0 0 0 0 0 0 0 0 0 0 0 0 0 6 61 61 29 19 13 10 16 61 94 100 100 100 100 100 100 100 100 94 94 90 81 71 68 68 48 42 52 58 65 81 84 87 74 84
45 10 0 0 0 0 0 0 0 0 0 0 0 0 3 55 81 65 48 39 19 19 45 71 97 100 100 100 100 97 97 100 97 94 97 90 68 61 45 42 32 29 29 35 48 58 55 71 77
35 3 0 0 0 0 0 0 0 3 3 3 0 0 6 68 87 71 61 74 52 42 35 55 81 84 94 100 100 97 100 100 100 100 97 90 77 58 39 32 23 10 13 19 26 32 42 52 61
6 0 0 0 0 3 0 0 0 0 0 6 26 29 52 81 77 77 71 65 68 55 42 45 55 81 81 74 97 100 100 100 100 100 97 94 84 65 61 35 23 10 13 10 10 23 32 39 42
3 3 6 16 10 6 3 0 0 0 3 6 29 48 65 74 65 55 52 32 45 61 52 45 58 65 74 81 81 100 100 100 100 94 87 90 68 52 16 26 32 19 6 6 6 19 16 0 0
0 6 10 3 6 0 0 0 3 3 0 3 13 35 39 32 26 23 23 19 32 29 42 45 52 68 55 90 94 100 100 100 94 77 74 97 65 45 16 32 45 26 16 3 13 10 0 0 3
6 3 0 0 0 0 0 0 0 0 0 6 10 16 19 16 16 16 16 10 10 19 29 23 26 55 71 84 97 97 100 100 97 90 81 90 87 55 19 32 10 19 16 3 3 6 0 0 0
10 0 0 0 0 0 0 0 0 3 3 3 3 6 6 6 6 6 6 6 6 6 3 10 23 35 55 81 94 90 100 100 94 100 94 81 90 58 19 16 19 6 6 10 3 0 0 0 0
6 0 0 0 0 0 0 0 0 0 3 3 6 3 3 3 3 3 3 6 6 6 6 10 13 23 39 55 81 87 84 94 87 97 90 61 84 65 35 19 23 6 6 6 3 0 0 0 0
0 0 0 0 0 0 0 0 0 0 0 0 0 3 3 3 3 3 3 3 3 3 3 3 3 10 16 29 52 74 94 90 84 87 84 68 74 68 52 32 26 23 6 0 3 0 0 0 0
0 0 0 0 0 0 0 0 0 0 0 0 0 0 0 0 0 0 3 3 3 3 3 3 3 3 6 16 26 42 58 77 84 84 81 48 58 48 74 71 61 32 23 16 10 3 0 0 0
0 0 0 0 0 0 0 0 0 0 0 0 0 0 0 0 0 0 0 0 3 3 0 3 3 0 0 3 10 23 39 52 71 81 84 71 52 48 77 87 84 48 35 19 3 6 0 0 0
0 0 0 0 0 0 0 0 0 0 0 0 0 0 0 0 0 0 0 3 3 3 3 0 0 0 0 0 3 23 32 48 48 48 55 55 65 61 84 94 74 55 65 42 13 3 6 0 0
0 0 0 0 0 0 0 0 0 0 0 0 0 0 0 0 0 0 0 0 0 0 0 0 0 0 0 3 3 0 16 29 39 39 39 48 58 68 81 71 68 74 74 55 19 13 3 6 0
0 0 0 0 0 0 0 0 0 0 0 0 0 0 0 0 0 0 0 0 0 0 0 0 0 0 0 3 0 0 3 16 29 39 45 45 52 58 48 68 68 71 71 65 35 39 26 10 0
0 0 0 0 0 0 0 0 0 0 0 0 0 0 0 0 0 0 0 0 0 0 0 0 0 0 0 0 0 0 0 16 19 32 32 39 42 39 52 48 48 61 58 65 58 55 48 26 0
0 0 0 0 0 0 0 0 0 0 0 0 0 0 0 0 0 0 0 0 0 0 0 0 0 0 0 0 0 0 3 3 19 19 23 26 45 48 48 45 52 55 55 65 55 32 39 42 32
0 0 0 0 0 0 0 0 0 0 0 0 0 0 0 0 0 0 0 0 0 0 0 0 0 0 0 0 3 6 6 10 23 16 19 29 42 52 52 48 55 52 58 48 35 32 29 32 35
0 0 0 0 0 0 0 0 0 0 0 0 0 0 0 0 0 0 0 0 0 0 0 0 0 0 0 3 6 6 6 13 19 26 32 39 48 45 39 48 52 42 45 52 39 29 26 29 29
0 0 0 0 0 0 0 0 0 0 0 0 0 0 0 0 0 0 0 0 0 0 0 0 0 0 0 3 6 10 10 10 13 16 23 29 32 32 35 39 48 52 45 35 35 35 19 19 19
0 0 0 0 0 0 0 0 0 0 0 0 0 0 0 0 0 0 0 0 0 0 0 0 0 0 0 3 6 10 13 13 10 16 16 23 29 29 26 35 42 32 35 16 29 23 19 10 13
0 0 0 0 0 0 0 0 0 0 0 0 0 0 0 0 0 0 0 0 0 0 0 0 0 0 3 3 3 6 10 10 6 10 13 19 23 26 23 35 32 29 26 19 16 19 13 3 6
0 0 0 0 0 0 0 0 0 0 0 0 0 0 0 0 0 0 0 0 0 0 0 0 0 0 0 3 6 6 6 6 6 6 6 6 6 16 19 19 23 19 19 23 23 19 6 3 6
0 0 0 0 0 0 0 0 0 0 0 0 0 0 0 0 0 0 0 0 0 0 0 0 0 0 0 0 0 3 3 6 6 10 13 6 10 10 10 6 10 10 6 10 13 13 10 0 3
0 0 0 0 0 0 0 0 0 0 0 0 0 0 0 0 0 0 0 0 0 0 0 0 0 0 0 0 0 0 0 0 6 6 3 3 3 0 0 0 0 0 0 0 3 3 3 3 3

GEFSSGP_con_cape1000_054.txt.gz
Probability
100 100 100 100 100 58 0 0 0 0 0 0 0 0 0 10 32 45 74 45 77 84 94 100 100 100 100 100 100 100 100 100 100 100 100 100 100 100 100 97 94 97 97 97 97 97 97 97 97
100 100 100 100 87 0 3 0 0 0 0 0 0 0 0 0 0 0 23 55 84 90 94 100 100 100 100 100 100 100 100 100 100 97 97 97 97 97 97 87 90 90 94 97 97 97 97 90 90
100 100 100 97 13 0 0 0 0 0 0 0 0 3 3 3 6 3 6 26 84 94 100 100 100 100 100 100 100 100 97 97 97 97 94 94 94 87 84 77 71 74 87 94 97 97 97 90 90
100 100 97 52 0 0 0 0 0 0 0 0 0 0 6 6 6 0 3 26 77 100 100 100 100 100 100 100 100 100 97 97 97 97 94 87 84 81 74 68 68 71 71 81 87 90 87 90 87
100 100 45 6 0 0 0 0 0 0 3 3 0 6 6 3 0 0 3 29 61 97 100 100 100 100 100 100 100 97 94 97 97 97 90 84 71 71 61 68 55 61 65 61 61 77 84 81 74
100 77 13 0 3 0 3 0 6 10 19 16 13 16 23 13 13 10 3 13 52 90 100 100 100 100 100 100 100 97 97 94 94 97 90 81 68 71 61 55 45 48 48 48 55 65 61 68 71
100 77 10 13 29 3 3 16 29 32 35 29 29 23 29 26 32 26 26 26 35 68 100 100 100 100 100 100 100 97 97 97 97 97 90 87 84 81 55 48 39 35 26 39 32 45 48 58 68
100 84 10 23 42 19 13 19 19 32 35 29 29 39 32 35 29 42 45 45 42 45 65 90 97 100 100 100 100 100 97 100 100 100 100 97 94 81 71 58 42 29 16 19 26 32 35 45 68
55 61 16 32 68 39 26 16 26 32 26 23 19 19 19 26 26 29 29 35 42 32 45 42 71 81 94 100 100 100 100 100 100 100 100 100 90 71 81 65 77 29 16 13 10 13 29 55 71
55 77 26 52 61 48 19 23 29 16 13 16 10 13 10 16 13 6 10 16 13 10 19 23 23 45 65 94 97 97 97 97 100 100 97 90 87 81 71 84 84 52 29 23 16 26 42 35 6
19 55 32 23 42 32 13 3 3 10 6 6 6 10 10 10 6 6 3 0 0 6 10 13 13 16 32 71 94 94 94 97 97 97 94 74 58 74 45 26 52 26 29 13 16 19 3 0 0
16 13 10 23 16 23 10 6 3 3 3 3 6 6 6 6 6 6 6 6 6 6 3 6 10 3 10 32 68 87 90 90 81 81 71 77 81 52 16 16 23 19 19 10 6 6 3 0 0
16 13 16 13 10 6 6 3 3 3 3 3 6 6 6 3 3 3 3 3 3 3 0 0 0 3 16 23 42 45 68 81 74 77 74 68 61 26 26 6 13 16 13 10 19 3 0 0 0
19 10 10 10 6 6 6 3 3 3 3 3 0 0 0 0 0 3 3 3 3 3 3 3 3 3 0 6 19 29 48 52 61 58 52 42 52 42 42 3 13 10 10 6 6 3 0 0 0
3 6 3 3 0 0 0 0 0 3 3 3 0 0 0 0 0 0 0 0 3 3 3 3 3 3 3 6 10 16 23 39 58 45 32 29 29 29 32 19 3 10 3 6 3 0 0 0 0
0 0 0 0 0 0 0 0 0 3 3 3 0 0 0 0 0 0 0 0 0 3 3 3 3 3 0 0 3 6 16 19 42 45 39 26 23 23 26 39 29 23 10 3 3 3 3 0 0
0 0 0 0 0 0 0 0 3 3 0 0 0 0 0 0 0 0 0 0 0 0 0 0 3 3 3 0 0 3 13 19 26 45 48 39 26 23 39 35 35 29 19 10 3 3 3 0 0
0 0 0 0 0 0 0 0 0 0 0 0 0 0 0 0 0 0 0 0 0 0 0 0 0 0 0 0 0 0 10 16 19 23 26 29 29 35 26 35 29 19 23 13 13 3 10 6 0
0 0 0 0 0 0 0 0 0 0 0 0 0 0 0 0 0 0 0 0 0 0 0 0 0 0 0 0 3 3 3 13 13 13 26 26 26 29 26 23 29 29 23 13 6 3 6 3 0
0 0 0 0 0 0 0 0 0 0 0 0 0 0 0 0 0 0 0 0 0 0 0 0 0 0 0 0 0 3 0 0 6 19 19 19 23 32 29 26 26 35 13 10 10 3 3 0 0
0 0 0 0 0 0 0 0 0 0 0 0 0 0 0 0 0 0 0 0 0 0 0 0 0 0 0 0 0 0 0 0 3 13 13 13 16 19 29 26 23 23 13 10 3 0 0 0 0
0 0 0 0 0 0 0 0 0 0 0 0 0 0 0 0 0 0 0 0 0 0 0 0 0 0 0 0 0 0 0 0 0 6 10 13 16 19 29 23 23 16 16 16 10 3 0 0 0
0 0 0 0 0 0 0 0 0 0 0 0 0 0 0 0 0 0 0 0 0 0 0 0 0 0 0 0 0 0 0 0 3 6 13 16 19 19 26 23 26 19 13 16 13 3 6 3 0
0 0 0 0 0 0 0 0 0 0 0 0 0 0 0 0 0 0 0 0 0 0 0 0 0 0 0 0 0 0 0 0 0 3 6 10 16 16 19 19 23 26 23 16 19 13 13 13 6
0 0 0 0 0 0 0 0 0 0 0 0 0 0 0 0 0 0 0 0 0 0 0 0 0 0 0 0 0 0 0 0 3 3 6 6 10 13 19 16 16 23 23 13 16 6 13 13 10
0 0 0 0 0 0 0 0 0 0 0 0 0 0 0 0 0 0 0 0 0 0 0 0 0 0 0 0 0 0 0 0 0 0 3 6 10 13 13 19 19 19 23 13 10 6 10 13 10
0 0 0 0 0 0 0 0 0 0 0 0 0 0 0 0 0 0 0 0 0 0 0 0 0 0 0 0 0 0 0 0 0 0 0 0 6 6 10 6 13 19 16 13 6 3 6 3 3
0 0 0 0 0 0 0 0 0 0 0 0 0 0 0 0 0 0 0 0 0 0 0 0 0 0 0 0 0 0 0 3 3 0 0 0 3 3 3 3 3 10 10 10 10 6 3 3 0
0 0 0 0 0 0 0 0 0 0 0 0 0 0 0 0 0 0 0 0 0 0 0 0 0 0 0 0 0 0 0 0 0 0 3 6 6 3 3 6 6 10 6 6 10 6 3 3 0
0 0 0 0 0 0 0 0 0 0 0 0 0 0 0 0 0 0 0 0 0 0 0 0 0 0 0 0 0 0 0 0 0 0 0 3 6 6 0 0 3 3 6 3 3 0 0 0 0

GEFSSGP_con_cape1000_060.txt.gz
Probability
100 100 100 90 35 0 0 0 0 0 0 0 0 0 0 0 0 0 0 26 26 87 100 100 100 100 100 100 100 100 100 100 100 100 97 97 97 97 97 94 94 97 97 97 97 97 97 97 97
94 97 97 55 0 0 0 0 0 0 0 0 0 0 0 0 0 16 26 42 55 97 100 100 100 100 100 100 100 100 100 100 100 100 97 97 97 97 94 90 90 94 94 97 97 97 97 90 94
90 94 74 3 0 0 0 0 0 0 0 0 0 0 0 0 3 23 45 52 58 81 100 100 100 100 100 100 100 100 100 100 100 97 97 97 94 94 90 87 81 84 90 94 97 97 94 90 90
87 61 13 0 0 0 0 0 0 0 0 0 0 0 0 0 3 32 65 58 68 87 100 100 100 100 100 100 100 100 97 97 97 97 97 94 94 87 81 77 74 74 84 84 94 90 94 94 90
55 16 0 0 0 0 0 0 0 0 0 0 0 0 3 0 26 55 74 77 81 97 97 100 100 100 100 100 100 100 100 100 97 97 94 94 84 77 77 77 77 71 74 74 71 81 84 90 84
19 0 0 0 0 0 0 0 0 0 0 0 0 6 0 0 10 32 58 74 97 97 97 100 100 100 100 100 100 100 100 100 100 100 97 90 87 84 81 74 71 65 68 65 65 77 77 81 84
29 0 0 0 0 0 0 3 0 0 3 3 0 0 0 0 3 13 26 48 58 77 87 87 97 100 100 100 100 100 100 100 100 100 100 94 94 94 81 71 65 61 61 52 55 65 71 77 90
6 0 0 0 0 0 3 10 6 0 3 3 0 0 3 3 0 13 16 19 29 32 35 45 55 81 97 100 100 100 100 100 100 100 100 100 100 94 90 87 81 68 52 58 55 52 58 74 94
0 0 0 0 0 0 3 3 3 0 0 0 0 0 3 3 0 10 6 10 10 16 16 16 26 35 45 68 97 100 100 100 100 100 100 100 90 84 81 81 87 77 65 61 58 61 65 74 81
0 0 0 3 0 0 0 0 0 0 0 0 0 0 0 0 0 3 3 3 6 6 6 6 10 16 23 42 55 77 90 94 100 97 94 97 81 58 68 65 94 90 90 81 71 71 74 61 10
0 0 0 0 3 0 3 3 3 0 0 0 0 0 0 0 0 0 0 0 3 3 3 3 3 3 6 13 13 26 42 58 77 81 81 81 65 32 58 13 68 94 87 52 32 58 29 10 3
0 0 6 3 0 3 3 3 0 3 3 0 0 0 0 0 0 0 0 0 3 3 0 3 3 3 3 3 6 10 13 26 48 42 55 52 42 19 6 6 16 19 23 10 6 6 3 0 0
0 3 0 0 3 3 3 3 0 0 0 0 0 0 0 0 0 0 0 0 0 0 0 0 0 0 0 3 3 3 3 10 19 19 26 26 29 16 3 3 3 6 0 3 0 0 0 0 0
0 0 0 0 0 0 0 0 0 0 0 0 0 0 0 0 0 0 0 0 0 0 0 0 0 0 0 0 3 3 3 3 3 3 6 13 16 10 0 0 0 0 0 0 0 0 0 0 0
3 0 0 0 0 0 0 0 0 0 0 0 0 0 0 0 0 0 0 0 0 0 0 0 0 0 0 0 0 0 3 3 3 3 3 6 3 0 0 0 0 0 0 0 0 0 0 0 0
0 0 0 0 0 0 0 0 0 0 0 0 0 0 0 0 0 0 0 0 0 0 0 0 0 0 0 0 0 0 0 0 0 3 3 3 3 0 0 0 3 0 0 0 0 0 0 0 0
0 0 0 0 0 0 0 0 0 0 0 0 0 0 0 0 0 0 0 0 0 0 0 0 0 0 0 0 0 0 0 0 0 3 3 0 0 0 0 0 0 3 0 0 0 0 0 0 0
0 0 0 0 0 0 0 0 0 0 0 0 0 0 0 0 0 0 0 0 0 0 0 0 0 0 0 0 0 0 0 0 0 0 0 0 0 0 0 0 0 0 0 0 3 0 0 0 0
0 0 0 0 0 0 0 0 0 0 0 0 0 0 0 0 0 0 0 0 0 0 0 0 0 0 0 0 0 0 0 0 0 0 0 0 0 0 0 0 0 0 0 0 0 0 0 0 0
0 0 0 0 0 0 0 0 0 0 0 0 0 0 0 0 0 0 0 0 0 0 0 0 0 0 0 0 0 0 0 0 0 0 0 0 0 3 3 0 0 0 0 0 0 0 0 0 0
0 0 0 0 0 0 0 0 0 0 0 0 0 0 0 0 0 0 0 0 0 0 0 0 0 0 0 0 0 0 0 0 0 0 0 0 0 3 3 3 0 0 0 0 0 0 0 0 0
0 0 0 0 0 0 0 0 0 0 0 0 0 0 0 0 0 0 0 0 0 0 0 0 0 0 0 0 0 0 0 0 0 0 0 0 0 3 6 6 3 0 0 0 0 0 0 0 0
0 0 0 0 0 0 0 0 0 0 0 0 0 0 0 0 0 0 0 0 0 0 0 0 0 0 0 0 0 0 0 0 0 0 0 0 0 0 3 6 10 3 0 0 0 0 0 0 0
0 0 0 0 0 0 0 0 0 0 0 0 0 0 0 0 0 0 0 0 0 0 0 0 0 0 0 0 0 0 0 0 0 0 0 0 0 0 0 6 10 10 6 3 3 0 0 0 0
0 0 0 0 0 0 0 0 0 0 0 0 0 0 0 0 0 0 0 0 0 0 0 0 0 0 0 0 0 0 0 0 0 0 0 0 0 0 0 0 3 6 6 6 3 3 0 0 0
0 0 0 0 0 0 0 0 0 0 0 0 0 0 0 0 0 0 0 0 0 0 0 0 0 0 0 0 0 0 0 0 0 0 0 0 0 0 0 0 3 3 3 6 3 3 3 0 0
0 0 0 0 0 0 0 0 0 0 0 0 0 0 0 0 0 0 0 0 0 0 0 0 0 0 0 0 0 0 0 0 0 0 0 0 0 0 0 0 0 3 3 3 3 3 3 0 0
0 0 0 0 0 0 0 0 0 0 0 0 0 0 0 0 0 0 0 0 0 0 0 0 0 0 0 0 0 0 0 0 0 0 0 0 0 0 0 0 0 0 3 3 3 3 3 3 0
0 0 0 0 0 0 0 0 0 0 0 0 0 0 0 0 0 0 0 0 0 0 0 0 0 0 0 0 0 0 0 0 0 0 0 0 0 0 0 0 0 0 0 3 3 3 3 3 0
0 0 0 0 0 0 0 0 0 0 0 0 0 0 0 0 0 0 0 0 0 0 0 0 0 0 0 0 0 0 0 0 0 0 0 0 0 0 0 0 0 0 0 0 3 3 3 3 0

GEFSSGP_con_cape1000_066.txt.gz
Probability
100 97 87 48 3 0 0 0 0 0 0 0 0 0 0 0 0 0 0 3 19 61 100 100 100 100 100 100 100 100 100 100 100 100 100 100 100 100 100 97 94 97 97 97 97 100 100 100 94
90 90 61 3 0 0 0 0 0 0 0 0 0 0 0 6 6 3 3 29 48 84 100 100 100 100 100 100 100 100 100 100 100 100 100 97 94 94 90 90 94 94 94 97 97 97 97 90 94
81 71 13 0 0 0 0 0 0 0 0 0 0 0 0 3 10 6 10 32 68 100 100 100 100 100 100 100 100 100 100 100 100 100 100 97 94 94 90 90 87 90 90 90 97 97 94 90 90
65 23 0 0 0 0 0 0 0 0 0 0 0 0 0 0 6 3 26 48 74 94 100 100 100 100 100 100 100 100 100 100 100 100 97 97 94 87 90 87 77 81 84 90 90 90 94 94 84
19 0 0 0 0 0 0 0 0 0 0 0 0 0 0 3 6 6 19 35 55 77 97 97 100 100 100 100 100 100 100 100 100 100 97 90 90 87 84 81 81 77 81 74 74 84 90 84 74
0 0 0 0 0 0 0 0 0 0 0 0 0 0 0 3 3 3 16 13 39 52 58 68 94 97 100 97 97 100 100 100 100 100 100 97 94 84 87 87 77 77 74 68 71 74 74 71 81
0 0 0 0 0 0 0 0 0 0 0 0 0 0 0 3 3 3 6 6 26 26 26 23 32 48 84 94 100 100 100 100 100 100 100 100 100 90 90 84 77 68 65 68 65 65 65 68 81
0 0 0 0 0 0 0 0 3 0 0 0 0 0 0 0 6 6 0 0 10 6 6 16 16 19 23 35 74 90 100 97 100 100 100 97 100 100 94 90 81 71 65 58 61 58 55 58 68
0 0 0 0 0 0 0 0 0 0 0 0 0 0 0 3 3 0 0 0 0 0 0 3 3 3 13 16 29 48 77 87 94 90 97 97 97 87 90 90 90 90 81 71 61 61 55 55 68
0 0 0 0 0 0 0 0 0 0 0 0 0 0 0 0 0 0 0 0 0 0 0 0 0 3 3 6 13 13 23 39 48 68 74 81 77 77 90 87 94 90 90 90 81 71 61 48 23
0 0 0 0 0 0 0 0 0 0 0 0 0 0 0 0 0 0 0 0 0 0 0 0 0 0 3 3 6 6 6 13 26 35 42 61 65 55 74 42 45 84 94 84 81 74 39 23 10
0 0 0 0 0 3 0 0 0 0 0 0 0 0 0 0 0 0 0 0 0 0 0 0 0 0 0 0 3 3 6 6 10 10 13 16 32 26 39 32 13 13 19 23 16 16 13 3 3
0 3 0 0 0 0 0 0 0 0 0 0 0 0 0 0 0 0 0 0 0 0 0 0 0 0 0 0 0 0 0 3 3 6 6 6 6 13 26 16 16 3 3 6 0 3 0 0 3
0 0 0 0 0 0 0 0 0 0 0 0 0 0 0 0 0 0 0 0 0 0 0 0 0 0 0 0 0 0 0 0 0 0 3 6 3 3 6 13 6 3 3 3 0 0 0 0 0
0 0 0 0 0 0 0 0 0 0 0 0 0 0 0 0 0 0 0 0 0 0 0 0 0 0 0 0 0 0 0 0 0 3 0 3 3 0 0 3 3 0 3 3 0 0 0 0 0
0 0 0 0 0 0 0 0 0 0 0 0 0 0 0 0 0 0 0 0 0 0 0 0 0 0 0 0 0 0 0 0 0 0 0 0 3 3 3 0 3 0 0 0 0 0 0 0 0
0 0 0 0 0 0 0 0 0 0 0 0 0 0 0 0 0 0 0 0 0 0 0 0 0 0 0 0 0 0 0 0 0 0 0 0 0 3 0 0 3 0 0 0 0 0 0 0 0
0 0 0 0 0 0 0 0 0 0 0 0 0 0 0 0 0 0 0 0 0 0 0 0 0 0 0 0 0 0 0 0 0 0 0 0 0 0 0 0 0 0 0 0 0 0 0 0 0
0 0 0 0 0 0 0 0 0 0 0 0 0 0 0 0 0 0 0 0 0 0 0 0 0 0 0 0 0 0 0 0 0 0 0 0 0 0 0 0 0 0 0 0 0 0 0 0 0
0 0 0 0 0 0 0 0 0 0 0 0 0 0 0 0 0 0 0 0 0 0 0 0 0 0 0 0 0 0 0 0 0 0 0 0 0 0 0 0 0 0 0 0 0 0 0 0 0
0 0 0 0 0 0 0 0 0 0 0 0 0 0 0 0 0 0 0 0 0 0 0 0 0 0 0 0 0 0 0 0 0 0 0 0 0 0 0 0 0 3 0 0 0 0 0 0 0
0 0 0 0 0 0 0 0 0 0 0 0 0 0 0 0 0 0 0 0 0 0 0 0 0 0 0 0 0 0 0 0 0 0 0 0 0 0 0 0 0 3 0 0 0 0 0 0 0
0 0 0 0 0 0 0 0 0 0 0 0 0 0 0 0 0 0 0 0 0 0 0 0 0 0 0 0 0 0 0 0 0 0 0 0 0 0 0 0 3 3 3 0 0 0 0 0 0
0 0 0 0 0 0 0 0 0 0 0 0 0 0 0 0 0 0 0 0 0 0 0 0 0 0 0 0 0 0 0 0 0 0 0 0 0 0 0 0 0 3 3 6 0 0 0 0 0
0 0 0 0 0 0 0 0 0 0 0 0 0 0 0 0 0 0 0 0 0 0 0 0 0 0 0 0 0 0 0 0 0 0 0 0 0 0 0 0 0 0 3 3 0 0 0 0 0
0 0 0 0 0 0 0 0 0 0 0 0 0 0 0 0 0 0 0 0 0 0 0 0 0 0 0 0 0 0 0 0 0 0 0 0 0 0 0 0 0 0 0 3 3 0 3 0 0
0 0 0 0 0 0 0 0 0 0 0 0 0 0 0 0 0 0 0 0 0 0 0 0 0 0 0 0 0 0 0 0 0 0 0 0 0 0 0 0 0 0 0 0 0 0 0 0 0
0 0 0 0 0 0 0 0 0 0 0 0 0 0 0 0 0 0 0 0 0 0 0 0 0 0 0 0 0 0 0 0 0 0 0 0 0 0 0 0 0 0 0 0 0 0 0 0 0
0 0 0 0 0 0 0 0 0 0 0 0 0 0 0 0 0 0 0 0 0 0 0 0 0 0 0 0 0 0 0 0 0 0 0 0 0 0 0 0 0 0 3 0 0 3 3 0 3
0 0 0 0 0 0 0 0 0 0 0 0 0 0 0 0 0 0 0 0 0 0 0 0 0 0 0 0 0 0 0 0 0 0 0 0 0 0 0 0 0 0 0 0 0 0 0 3 3

GEFSSGP_con_cape1000_072.txt.gz
Probability
100 94 97 97 71 3 0 0 0 0 0 0 0 0 0 0 0 6 71 32 13 29 65 97 97 100 100 100 100 100 100 100 100 100 100 100 100 100 100 97 97 97 97 100 97 97 97 94 97
100 97 87 74 13 0 0 0 0 0 0 0 0 0 0 0 10 16 35 55 23 23 58 81 100 100 100 100 100 100 100 100 100 100 100 100 97 97 97 94 90 90 97 94 94 97 100 90 87
94 90 81 23 0 0 0 0 0 0 0 0 0 0 0 16 19 26 48 45 35 32 61 87 100 100 100 100 100 100 97 100 100 100 100 100 94 94 90 87 90 90 90 94 94 97 100 90 84
90 74 48 0 0 0 0 3 0 0 0 0 0 0 10 19 29 32 42 55 42 39 52 84 97 97 97 97 90 94 97 94 97 100 97 100 94 90 87 87 84 84 87 90 90 87 94 87 81
81 68 6 0 0 0 0 0 3 0 0 0 0 0 10 16 26 29 48 55 48 32 42 61 77 87 90 94 97 94 94 100 100 94 94 94 90 84 87 84 84 81 81 81 81 84 77 68 77
77 26 0 0 0 0 0 0 0 0 3 3 0 0 13 16 23 29 19 29 29 29 26 23 26 35 58 77 94 97 97 97 97 94 94 94 94 90 90 87 81 81 74 71 71 71 68 65 68
84 16 0 0 0 3 3 6 3 6 10 6 3 0 10 16 19 26 26 23 16 16 10 10 13 23 23 39 48 71 84 90 94 94 87 90 94 90 94 81 81 77 74 68 68 65 61 52 52
84 13 0 0 0 3 6 10 3 6 10 3 0 6 13 10 10 16 16 16 10 3 3 6 6 6 10 13 23 32 45 61 71 77 84 84 87 90 87 94 94 87 74 61 55 61 58 55 52
42 3 0 0 0 3 10 10 3 0 6 0 0 0 3 10 10 10 3 3 3 0 0 0 3 3 3 6 6 16 16 26 39 61 61 71 74 71 87 84 87 87 84 71 61 58 58 58 61
48 0 3 13 3 13 13 13 6 3 0 0 0 3 3 3 3 3 0 0 0 0 0 0 0 0 0 0 3 16 13 19 19 32 48 58 65 74 61 61 87 87 84 81 74 65 58 48 45
55 19 26 10 6 10 10 6 3 6 0 0 0 0 3 3 3 0 0 0 0 0 0 0 0 0 0 0 0 3 10 16 13 13 19 35 39 45 58 71 87 84 81 81 81 74 68 52 32
48 29 23 13 0 3 3 3 3 6 0 0 0 0 3 0 0 0 0 0 0 0 0 0 0 0 0 0 0 0 0 0 10 10 10 16 32 42 42 61 65 81 77 74 77 81 58 26 10
32 19 16 6 0 3 3 3 3 0 0 0 0 0 0 0 0 0 0 0 0 0 0 0 0 0 0 0 0 0 0 0 3 3 3 6 13 23 32 45 74 74 71 71 77 58 42 29 23
26 16 10 3 3 0 3 0 0 0 0 0 0 0 0 0 0 0 0 0 0 0 0 0 0 0 0 0 0 0 0 0 0 3 3 6 10 13 23 39 45 52 61 77 74 55 52 26 19
10 10 6 6 3 0 0 0 0 0 0 0 0 0 0 0 0 0 0 0 0 0 0 0 0 0 0 0 0 0 0 0 0 3 3 6 3 3 6 29 26 39 45 55 55 32 45 32 23
16 10 0 6 0 0 0 0 0 0 0 0 0 0 0 0 0 0 0 0 0 0 0 0 0 0 0 0 0 0 0 0 0 3 3 3 0 3 6 10 26 32 42 45 48 52 55 39 29
6 0 0 0 0 0 0 0 0 0 0 0 0 0 0 0 0 0 0 0 0 0 0 0 0 0 0 0 0 0 0 0 0 0 3 3 0 0 0 13 23 16 32 42 23 42 45 39 39
0 0 0 0 0 0 0 0 0 0 0 0 0 0 0 0 0 0 0 0 0 0 0 0 0 0 0 0 0 0 0 0 0 0 0 3 3 3 3 6 10 23 32 39 42 42 39 39 26
0 0 0 0 0 0 0 0 0 0 0 0 0 0 0 0 0 0 0 0 0 0 0 0 0 0 0 0 0 0 0 0 0 0 0 0 0 0 3 0 6 16 32 35 39 35 19 26 16
0 0 0 0 0 0 0 0 0 0 0 0 0 0 0 0 0 0 0 0 0 0 0 0 0 0 0 0 0 0 0 0 3 3 0 0 0 0 0 3 6 10 26 26 32 29 29 16 6
0 0 0 0 0 0 0 0 0 0 0 0 0 0 0 0 0 0 0 0 0 0 0 0 0 0 0 0 0 0 0 0 0 0 0 0 0 0 0 0 6 6 10 26 32 39 29 23 13
0 0 0 0 0 0 0 0 0 0 0 0 0 0 0 0 0 0 0 0 0 0 0 0 0 0 0 0 0 0 0 0 0 0 0 0 0 0 0 0 0 6 6 13 23 23 35 26 10
0 0 0 0 0 0 0 0 0 0 0 0 0 0 0 0 0 0 0 0 0 0 0 0 0 0 0 0 0 0 0 0 0 0 0 0 0 0 0 0 0 0 3 3 10 16 35 29 26
0 0 0 0 0 0 0 0 0 0 0 0 0 0 0 0 0 0 0 0 0 0 0 0 0 0 0 0 0 0 0 0 0 0 0 0 0 0 0 0 0 0 3 6 13 10 19 23 19
0 0 0 0 0 0 0 0 0 0 0 0 0 0 0 0 0 0 0 0 0 0 0 0 0 0 0 0 0 0 0 0 0 0 0 0 0 3 0 0 0 0 3 6 10 13 13 13 13
0 0 0 0 0 0 0 0 0 0 0 0 0 0 0 0 0 0 0 0 0 0 0 0 0 0 0 0 0 0 0 0 0 0 0 0 0 0 0 0 0 0 0 6 10 16 16 16 19
0 0 0 0 0 0 0 0 0 0 0 0 0 0 0 0 0 0 0 0 0 0 0 0 0 0 0 0 0 0 0 0 0 0 0 0 0 0 0 0 0 3 6 6 10 13 13 16 16
0 0 0 0 0 0 0 0 0 0 0 0 0 0 0 0 0 0 0 0 0 0 0 0 0 0 0 0 0 0 0 0 0 0 0 0 0 0 0 0 0 3 6 6 6 6 10 10 10
0 0 0 0 0 0 0 0 0 0 0 0 0 0 0 0 0 0 0 0 0 0 0 0 0 0 0 0 0 0 0 0 0 0 0 0 0 0 0 0 0 0 6 10 3 3 3 6 3
0 0 0 0 0 0 0 0 0 0 0 0 0 0 0 0 0 0 0 0 0 0 0 0 0 0 0 0 0 0 0 0 0 0 0 0 0 0 0 0 0 0 6 6 6 6 0 3 3

GEFSSGP_con_cape1000_078.txt.gz
Probability
100 97 97 100 100 90 0 3 0 3 0 0 3 0 13 23 10 35 52 35 61 84 94 97 100 97 94 94 97 94 94 97 100 100 94 94 97 97 94 94 90 90 94 97 100 100 97 90 97
100 97 100 100 84 0 0 3 0 0 0 0 3 6 16 32 26 29 52 42 52 68 94 97 100 100 94 94 90 90 97 97 97 90 87 87 94 94 94 90 90 90 90 94 94 94 97 90 87
100 100 100 100 23 0 0 0 0 0 0 0 0 6 13 23 23 23 42 39 45 65 81 90 94 97 90 90 94 97 100 94 90 90 97 97 97 90 90 87 87 87 94 84 87 90 84 94 84
100 100 100 81 0 3 0 0 0 0 0 0 0 6 16 26 29 29 32 32 45 65 77 84 90 84 87 94 87 90 90 94 94 90 94 94 90 87 87 87 90 84 87 84 84 84 84 84 74
100 100 81 6 0 3 0 0 0 0 0 0 3 19 23 23 23 23 29 16 23 32 42 42 61 71 74 77 77 84 87 94 87 94 87 90 87 90 87 81 77 77 77 81 77 77 84 68 65
100 97 52 0 0 0 0 0 0 0 3 0 0 16 19 19 19 23 32 16 19 19 19 23 32 35 35 35 39 48 52 68 81 81 81 84 81 84 90 87 81 77 77 74 65 65 65 68 65
100 100 39 0 3 0 0 3 0 0 3 3 0 16 23 19 35 29 26 16 13 6 13 13 6 10 26 29 23 26 32 32 45 52 71 74 74 74 81 87 84 77 77 77 71 65 61 55 58
100 100 13 3 0 3 3 0 3 0 0 0 6 13 26 19 16 13 13 6 3 0 0 3 0 0 0 13 13 16 16 16 35 39 48 55 58 58 68 81 87 84 77 84 77 68 65 61 71
94 94 3 6 3 10 3 3 3 0 0 0 6 10 13 10 13 10 6 3 0 0 0 0 0 0 0 0 3 16 16 19 26 23 29 35 42 48 58 55 71 74 81 77 77 77 74 74 84
90 77 0 6 10 16 10 10 0 0 0 0 6 6 3 6 6 6 6 3 3 0 0 0 0 0 0 0 0 0 0 6 10 16 16 19 23 26 29 29 55 55 65 68 74 84 77 74 52
39 26 13 10 6 10 3 0 0 3 3 6 10 6 6 3 3 3 0 0 0 0 0 0 0 0 0 0 0 3 0 0 0 6 10 10 6 13 10 13 32 32 39 39 48 68 52 39 29
13 13 13 13 3 3 0 0 0 6 6 3 3 3 6 0 0 0 0 0 0 0 0 0 0 0 0 0 0 0 0 3 3 0 6 10 6 6 6 6 10 23 19 29 29 32 26 19 13
16 16 13 6 10 3 0 0 3 3 6 3 3 3 0 0 0 0 0 0 0 0 0 0 0 0 0 0 0 0 0 0 0 0 0 3 10 10 6 3 3 6 10 16 16 13 13 10 3
16 10 10 3 3 3 3 6 3 6 0 0 0 0 0 0 0 0 0 0 0 0 0 0 0 0 0 0 0 0 0 0 0 0 0 3 0 0 0 3 3 6 6 13 10 10 3 10 10
16 10 6 6 6 3 3 0 0 6 3 0 0 0 0 0 0 0 0 0 0 0 0 0 0 0 0 0 0 0 0 0 0 0 0 0 0 3 0 3 0 6 6 3 3 6 3 6 6
10 3 3 13 6 3 3 0 6 3 0 0 0 0 0 0 0 0 0 0 0 0 0 0 0 0 0 0 0 0 0 0 0 0 0 0 0 3 0 0 0 3 6 3 0 0 6 0 0
13 3 3 6 6 6 0 0 3 3 0 0 0 0 0 0 0 0 0 0 0 0 0 0 0 0 0 0 0 0 0 0 0 0 0 0 0 0 0 3 0 0 0 3 0 0 0 0 0
3 3 0 0 6 3 0 0 3 3 0 0 0 0 0 0 0 0 0 0 0 0 0 0 0 0 0 0 0 0 0 0 0 0 0 0 0 0 0 0 0 0 0 3 0 0 0 0 0
0 0 0 0 0 0 0 0 0 0 0 0 0 0 0 0 0 0 0 0 0 0 0 0 0 0 0 0 0 0 0 0 0 0 0 0 0 0 0 0 0 0 0 3 3 0 0 0 0
0 0 0 0 0 0 0 0 0 0 0 0 0 0 0 0 0 0 0 0 0 0 0 0 0 0 0 0 0 0 0 0 0 0 0 0 0 0 0 3 0 0 0 0 0 0 0 0 0
0 0 0 0 0 0 0 0 0 0 0 0 0 0 0 0 0 0 0 0 0 0 0 0 0 0 0 0 0 0 0 0 0 0 0 0 0 0 0 0 0 0 0 0 0 0 0 0 0
0 0 0 0 0 0 0 0 0 0 0 0 0 0 0 0 0 0 0 0 0 0 0 0 0 0 0 0 0 0 0 0 0 0 0 0 0 0 0 0 0 0 0 0 0 0 0 0 0
0 0 0 0 0 0 0 0 0 0 0 0 0 0 0 0 0 0 0 0 0 0 0 0 0 0 0 0 0 0 0 0 0 0 0 0 0 0 0 0 0 0 0 0 0 0 0 0 0
0 0 0 0 0 0 0 0 0 0 0 0 0 0 0 0 0 0 0 0 0 0 0 0 0 0 0 0 0 0 0 0 0 0 0 0 0 0 0 0 0 0 0 0 0 0 0 0 0
0 0 0 0 0 0 0 0 0 0 0 0 0 0 0 0 0 0 0 0 0 0 0 0 0 0 0 0 0 0 0 0 0 0 0 0 0 0 0 0 0 0 0 0 0 0 0 0 3
0 0 0 0 0 0 0 0 0 0 0 0 0 0 0 0 0 0 0 0 0 0 0 0 0 0 0 0 0 0 0 0 0 0 0 0 0 0 0 0 0 0 0 0 3 3 3 3 3
0 0 0 0 0 0 0 0 0 0 0 0 0 0 0 0 0 0 0 0 0 0 0 0 0 0 0 0 0 0 0 0 0 0 0 0 0 0 0 0 0 0 0 0 0 3 6 3 3
0 0 0 0 0 0 0 0 0 0 0 0 0 0 0 0 0 0 0 0 0 0 0 0 0 0 0 0 0 0 0 0 0 0 0 0 0 0 0 0 0 0 0 0 0 3 0 3 3
0 0 0 0 0 0 0 0 0 0 0 0 0 0 0 0 0 0 0 0 0 0 0 0 0 0 0 0 0 0 0 0 0 0 0 0 0 0 0 0 0 0 0 0 0 0 0 0 3
0 0 0 0 0 0 0 0 0 0 0 0 0 0 0 0 0 0 0 0 0 0 0 0 0 0 0 0 0 0 0 0 0 0 0 0 0 0 0 0 0 0 0 0 0 0 0 0 0

GEFSSGP_con_cape1000_084.txt.gz
Probability
97 94 84 58 32 3 0 0 0 0 0 0 0 0 3 3 0 0 0 48 65 71 84 97 100 100 100 100 97 97 97 97 97 100 97 97 97 94 94 90 90 90 90 87 90 87 84 87 94
97 90 81 48 0 0 0 0 0 0 0 6 3 3 3 6 0 3 13 52 71 77 90 94 97 100 100 100 94 97 97 97 97 100 100 100 97 94 87 87 84 84 87 84 84 81 77 77 84
100 90 61 6 0 0 0 0 0 0 0 3 3 6 3 3 13 6 13 58 58 71 87 90 90 97 94 97 100 100 94 97 97 100 100 100 97 97 94 90 84 81 84 81 84 84 81 74 81
100 77 13 0 0 0 0 0 0 0 3 10 10 6 10 10 6 10 29 45 52 58 68 87 94 90 90 87 94 97 97 100 100 100 100 100 97 97 97 90 84 77 77 77 81 84 77 74 77
90 35 0 0 0 0 0 0 0 3 0 10 3 10 10 10 6 6 6 19 26 35 48 68 74 81 81 81 81 94 97 94 100 97 100 100 97 97 94 87 87 81 74 74 68 68 65 71 71
58 10 0 0 0 0 0 0 0 0 0 0 0 10 10 6 6 6 6 3 10 19 29 39 48 52 55 55 58 68 65 74 77 87 94 90 90 90 84 87 90 84 81 74 71 71 61 55 65
52 3 0 0 0 0 0 0 0 0 0 3 3 13 6 6 3 6 3 3 3 3 6 10 13 19 32 45 39 48 45 45 55 65 61 74 84 77 77 81 84 90 87 81 77 71 68 68 68
48 0 0 0 0 0 0 0 0 0 0 6 10 6 6 3 3 3 3 3 3 0 3 3 0 3 0 0 19 29 29 29 32 42 45 55 52 65 71 68 74 74 87 87 77 81 74 74 74
13 0 0 0 0 0 0 0 0 3 0 0 3 10 3 0 3 3 3 0 0 0 0 0 0 0 0 0 0 3 10 16 13 13 16 16 13 19 26 35 58 71 74 77 84 77 74 84 81
0 0 0 0 0 0 0 0 0 6 0 0 3 3 6 0 0 0 0 0 0 0 0 0 0 0 0 0 0 0 0 0 0 0 0 3 0 3 13 19 42 42 48 58 68 65 81 74 52
3 0 0 0 0 0 0 0 0 0 0 0 3 0 3 0 0 0 0 0 0 0 0 0 0 0 0 0 0 0 0 0 0 0 0 0 0 0 3 0 6 6 23 23 26 39 35 35 26
3 6 6 6 3 0 0 3 0 0 0 0 0 3 0 0 0 0 0 0 0 0 0 0 0 0 0 0 0 0 0 0 0 0 0 0 0 0 0 0 0 3 3 3 6 6 10 13 6
3 0 0 3 3 0 0 0 0 3 3 3 0 0 0 0 0 0 0 0 0 0 0 0 0 0 0 0 0 0 0 0 0 0 0 0 0 0 0 0 0 0 3 3 0 0 3 3 3
6 3 0 0 0 0 3 0 0 3 3 3 0 0 0 0 0 0 0 0 0 0 0 0 0 0 0 0 0 0 0 0 0 0 0 0 0 0 0 0 0 0 0 0 0 0 0 0 0
6 3 3 0 0 0 0 0 0 0 0 3 0 0 0 0 0 0 0 0 0 0 0 0 0 0 0 0 0 0 0 0 0 0 0 0 0 0 0 0 0 0 0 0 0 0 0 0 0
0 0 0 0 3 6 0 0 0 0 0 0 0 0 0 0 0 0 0 0 0 0 0 0 0 0 0 0 0 0 0 0 0 0 0 0 0 0 0 0 0 0 0 0 0 0 0 0 0
0 0 0 0 0 0 0 0 0 0 0 0 0 0 0 0 0 0 0 0 0 0 0 0 0 0 0 0 0 0 0 0 0 0 0 0 0 0 0 0 0 0 0 0 0 0 0 0 0
0 0 0 0 0 0 0 0 0 0 0 0 0 0 0 0 0 0 0 0 0 0 0 0 0 0 0 0 0 0 0 0 0 0 0 0 0 0 0 0 0 0 0 0 0 0 0 0 0
0 0 0 0 0 0 0 0 0 0 0 0 0 0 0 0 0 0 0 0 0 0 0 0 0 0 0 0 0 0 0 0 0 0 0 0 0 0 0 0 0 0 0 0 0 0 0 0 0
0 0 0 0 0 0 0 0 0 0 0 0 0 0 0 0 0 0 0 0 0 0 0 0 0 0 0 0 0 0 0 0 0 0 0 0 0 0 0 0 0 0 0 0 0 0 0 0 0
0 0 0 0 0 0 0 0 0 0 0 0 0 0 0 0 0 0 0 0 0 0 0 0 0 0 0 0 0 0 0 0 0 0 0 0 0 0 0 0 0 0 0 0 0 0 0 0 0
0 0 0 0 0 0 0 0 0 0 0 0 0 0 0 0 0 0 0 0 0 0 0 0 0 0 0 0 0 0 0 0 0 0 0 0 0 0 0 0 0 0 0 0 0 0 0 0 0
0 0 0 0 0 0 0 0 0 0 0 0 0 0 0 0 0 0 0 0 0 0 0 0 0 0 0 0 0 0 0 0 0 0 0 0 0 0 0 0 0 0 0 0 0 0 0 0 0
0 0 0 0 0 0 0 0 0 0 0 0 0 0 0 0 0 0 0 0 0 0 0 0 0 0 0 0 0 0 0 0 0 0 0 0 0 0 0 0 0 0 0 0 0 0 0 0 0
0 0 0 0 0 0 0 0 0 0 0 0 0 0 0 0 0 0 0 0 0 0 0 0 0 0 0 0 0 0 0 0 0 0 0 0 0 0 0 0 0 0 0 0 0 0 0 0 0
0 0 0 0 0 0 0 0 0 0 0 0 0 0 0 0 0 0 0 0 0 0 0 0 0 0 0 0 0 0 0 0 0 0 0 0 0 0 0 0 0 0 0 0 0 0 0 0 0
0 0 0 0 0 0 0 0 0 0 0 0 0 0 0 0 0 0 0 0 0 0 0 0 0 0 0 0 0 0 0 0 0 0 0 0 0 0 0 0 0 0 0 0 0 0 0 0 0
0 0 0 0 0 0 0 0 0 0 0 0 0 0 0 0 0 0 0 0 0 0 0 0 0 0 0 0 0 0 0 0 0 0 0 0 0 0 0 0 0 0 0 0 0 0 0 0 0
0 0 0 0 0 0 0 0 0 0 0 0 0 0 0 0 0 0 0 0 0 0 0 0 0 0 0 0 0 0 0 0 0 0 0 0 0 0 0 0 0 0 0 0 0 0 0 0 0
0 0 0 0 0 0 0 0 0 0 0 0 0 0 0 0 0 0 0 0 0 0 0 0 0 0 0 0 0 0 0 0 0 0 0 0 0 0 0 0 0 0 0 0 0 0 0 0 0

GEFSSGP_con_cape1000_090.txt.gz
Probability
90 68 29 16 6 0 0 0 0 0 0 0 0 0 0 0 0 0 0 10 29 45 61 74 84 94 90 94 90 87 90 94 97 100 100 100 97 97 94 90 97 97 94 87 90 84 77 74 87
77 61 19 10 0 0 0 0 0 0 0 0 0 0 3 0 3 3 10 26 48 48 61 71 84 81 84 84 87 84 94 97 94 94 97 100 97 94 94 94 97 94 87 84 81 84 77 74 71
71 42 16 0 0 0 0 0 0 0 0 0 3 3 3 6 0 0 16 32 42 48 45 52 68 71 74 77 77 74 87 81 87 87 87 94 94 90 94 94 94 90 77 84 81 84 77 74 71
58 10 0 0 0 0 0 0 0 0 0 0 0 3 10 3 3 6 23 35 35 35 39 45 58 58 61 58 61 55 68 65 74 81 84 90 90 94 90 94 94 94 87 84 84 77 74 74 71
26 0 0 0 0 0 0 0 0 0 0 0 0 0 6 3 3 10 23 29 29 32 35 32 48 48 42 42 39 45 42 45 52 55 68 77 74 94 97 94 94 97 97 84 87 77 74 65 68
3 0 0 0 0 0 0 0 0 0 0 0 0 0 6 3 3 6 13 3 6 6 13 16 32 32 32 35 35 32 29 29 32 35 45 45 58 65 71 81 77 87 97 94 90 94 74 68 58
0 0 0 0 0 0 0 0 0 0 0 0 0 0 6 0 3 3 0 3 0 0 0 0 0 3 16 26 19 29 29 26 26 23 29 35 35 39 52 55 55 65 74 87 90 97 90 74 68
6 0 0 0 0 0 0 0 0 0 0 3 3 0 0 0 0 0 0 0 0 0 3 0 0 0 0 0 3 3 10 10 23 26 29 23 23 19 23 26 42 55 61 68 71 87 94 84 77
0 0 0 0 0 0 0 0 0 0 0 3 3 0 0 0 0 0 0 0 0 0 0 0 0 0 0 0 0 0 0 0 0 0 3 3 0 0 0 3 16 32 39 35 45 68 74 77 81
0 0 0 0 0 0 0 0 0 0 0 3 0 0 0 0 0 0 0 0 0 0 0 0 0 0 0 0 0 0 0 0 0 0 0 0 0 0 0 0 3 10 32 23 23 39 35 45 39
0 0 0 0 0 3 0 0 0 0 0 0 0 3 0 0 0 0 0 0 0 0 0 0 0 0 0 0 0 0 0 0 0 0 0 0 0 0 0 0 0 0 3 3 3 19 13 13 6
0 0 0 3 0 0 0 0 0 0 0 0 0 3 0 0 0 0 0 0 0 0 0 0 0 0 0 0 0 0 0 0 0 0 0 0 0 0 0 0 0 0 0 3 3 3 3 6 6
0 0 3 0 0 0 0 0 0 0 0 3 0 3 0 0 0 0 0 0 0 0 0 0 0 0 0 0 0 0 0 0 0 0 0 0 0 0 0 0 0 0 0 0 0 0 0 3 3
10 3 0 0 0 0 0 0 0 0 3 3 0 0 0 0 0 0 0 0 0 0 0 0 0 0 0 0 0 0 0 0 0 0 0 0 0 0 0 0 0 0 0 0 0 0 0 0 0
3 3 0 0 0 0 0 0 0 0 3 3 3 0 0 0 0 0 0 0 0 0 0 0 0 0 0 0 0 0 0 0 0 0 0 0 0 0 0 0 0 0 0 0 0 0 0 0 0
0 0 0 0 0 3 0 0 0 0 3 3 3 3 0 0 0 0 0 0 0 0 0 0 0 0 0 0 0 0 0 0 0 0 0 0 0 0 0 0 0 0 0 0 0 0 0 0 0
0 0 0 0 0 0 0 0 0 0 3 0 0 0 0 0 0 0 0 0 0 0 0 0 0 0 0 0 0 0 0 0 0 0 0 0 0 0 0 0 0 0 0 0 0 0 0 0 0
0 0 0 0 0 0 0 0 0 0 3 0 0 0 0 0 0 0 0 0 0 0 0 0 0 0 0 0 0 0 0 0 0 0 0 0 0 0 0 0 0 0 0 0 0 0 0 0 0
0 0 0 0 0 0 0 0 0 0 0 0 0 0 0 0 0 0 0 0 0 0 0 0 0 0 0 0 0 0 0 0 0 0 0 0 0 0 0 0 0 0 0 0 0 0 0 0 0
0 0 0 0 0 0 0 0 0 0 0 0 0 0 0 0 0 0 0 0 0 0 0 0 0 0 0 0 0 0 0 0 0 0 0 0 0 0 0 0 0 0 0 0 0 0 0 0 0
0 0 0 0 0 0 0 0 0 0 0 0 0 0 0 0 0 0 0 0 0 0 0 0 0 0 0 0 0 0 0 0 0 0 0 0 0 0 0 0 0 0 0 0 0 0 0 0 0
0 0 0 0 0 0 0 0 0 0 0 0 0 0 0 0 0 0 0 0 0 0 0 0 0 0 0 0 0 0 0 0 0 0 0 0 0 0 0 0 0 0 0 0 0 0 0 0 0
0 0 0 0 0 0 0 0 0 0 0 0 0 0 0 0 0 0 0 0 0 0 0 0 0 0 0 0 0 0 0 0 0 0 0 0 0 0 0 0 0 0 0 0 0 0 0 0 0
0 0 0 0 0 0 0 0 0 0 0 0 0 0 0 0 0 0 0 0 0 0 0 0 0 0 0 0 0 0 0 0 0 0 0 0 0 0 0 0 0 0 0 0 0 0 0 0 0
0 0 0 0 0 0 0 0 0 0 0 0 0 0 0 0 0 0 0 0 0 0 0 0 0 0 0 0 0 0 0 0 0 0 0 0 0 0 0 0 0 0 0 0 0 0 0 0 0
0 0 0 0 0 0 0 0 0 0 0 0 0 0 0 0 0 0 0 0 0 0 0 0 0 0 0 0 0 0 0 0 0 0 0 0 0 0 0 0 0 0 0 0 0 0 0 0 0
0 0 0 0 0 0 0 0 0 0 0 0 0 0 0 0 0 0 0 0 0 0 0 0 0 0 0 0 0 0 0 0 0 0 0 0 0 0 0 0 0 0 0 0 0 0 0 0 0
0 0 0 0 0 0 0 0 0 0 0 0 0 0 0 0 0 0 0 0 0 0 0 0 0 0 0 0 0 0 0 0 0 0 0 0 0 0 0 0 0 0 0 0 0 0 0 0 0
0 0 0 0 0 0 0 0 0 0 0 0 0 0 0 0 0 0 0 0 0 0 0 0 0 0 0 0 0 0 0 0 0 0 0 0 0 0 0 0 0 0 0 0 0 0 0 0 0
0 0 0 0 0 0 0 0 0 0 0 0 0 0 0 0 0 0 0 0 0 0 0 0 0 0 0 0 0 0 0 0 0 0 0 0 0 0 0 0 0 0 0 0 0 0 0 0 0

GEFSSGP_con_cape1000_096.txt.gz
Probability
94 77 61 55 48 10 0 0 0 0 0 0 0 0 0 0 0 10 45 29 26 23 29 52 65 65 58 55 58 61 74 68 74 71 77 81 87 84 87 87 94 97 97 97 90 84 81 77 77
84 74 52 32 26 0 0 0 0 0 0 0 0 0 0 0 3 16 29 29 29 26 32 35 55 52 48 48 45 39 45 55 61 71 68 74 84 87 84 90 81 87 90 90 90 77 71 74 71
71 61 45 29 0 0 0 0 0 0 0 0 0 0 0 3 6 16 26 32 26 26 35 35 42 52 39 29 29 32 32 48 58 58 52 61 71 81 84 84 84 87 84 87 90 81 77 77 74
65 52 35 10 0 0 0 0 0 6 3 0 0 0 6 10 19 19 16 10 19 23 13 13 32 29 23 29 23 23 19 19 35 39 35 48 52 65 71 77 74 77 81 71 74 74 71 74 71
71 48 13 0 0 0 0 0 3 0 0 0 0 0 10 19 19 16 13 13 10 13 13 13 32 26 29 29 26 19 16 13 16 16 23 39 39 42 52 55 58 61 65 68 68 74 68 65 68
84 35 0 0 0 0 0 0 0 0 0 0 0 0 16 10 16 16 19 19 10 10 10 16 23 23 16 16 19 16 19 16 19 19 19 16 16 26 26 39 45 45 45 55 52 58 68 65 58
94 23 0 0 0 0 0 0 0 0 0 0 0 0 16 13 13 19 10 10 10 10 10 10 6 10 10 6 6 3 6 3 3 6 16 19 23 23 19 23 35 32 32 42 39 42 48 55 65
94 32 0 0 0 0 0 0 0 0 0 3 0 0 6 16 6 10 10 13 10 3 3 0 0 0 0 3 0 0 0 3 3 3 3 10 6 3 10 13 10 19 32 29 42 35 35 35 48
61 13 0 0 0 0 6 0 0 0 0 6 10 3 10 13 6 3 0 3 3 0 0 0 0 0 0 0 0 0 0 0 0 0 0 0 0 3 10 3 0 10 6 26 29 32 29 32 45
65 3 0 3 3 0 6 0 3 0 0 0 10 13 10 6 3 3 3 0 0 0 0 0 0 0 0 0 0 0 0 0 0 0 0 0 0 3 0 0 0 0 3 13 19 29 23 19 26
42 6 3 6 6 3 6 6 3 0 0 0 3 6 6 6 10 3 0 0 0 0 0 0 0 0 0 0 0 0 0 0 0 0 0 0 0 0 3 6 10 0 0 3 16 32 19 13 26
35 19 10 10 10 6 6 10 6 0 3 3 3 6 3 6 6 3 0 0 0 0 0 0 0 0 0 0 0 0 0 0 0 0 0 0 0 0 0 0 3 6 3 3 10 26 3 6 13
39 32 19 19 13 10 13 6 3 6 3 3 6 10 6 6 6 3 0 0 0 0 0 0 0 0 0 0 0 0 0 0 0 0 0 0 0 0 0 0 0 0 3 3 6 10 13 3 3
32 32 29 32 26 10 6 3 3 3 6 3 10 10 10 3 3 3 0 0 0 0 0 0 0 0 0 0 0 0 0 0 0 0 0 0 0 0 0 0 0 0 3 3 3 3 16 10 13
48 35 13 19 13 10 0 0 3 0 6 6 10 13 6 3 3 3 0 0 0 0 0 0 0 0 0 0 0 0 0 0 0 0 0 0 0 0 0 0 0 0 0 0 3 0 3 0 3
35 16 3 3 13 3 0 0 0 0 6 6 10 10 10 6 3 3 0 0 0 0 0 0 0 0 0 0 0 0 0 0 0 0 0 0 0 0 0 3 0 0 0 3 3 0 6 0 0
6 3 0 0 3 3 0 0 0 0 6 6 6 10 10 6 3 3 0 0 0 0 0 0 0 0 0 0 0 0 0 0 0 0 0 0 0 0 0 0 0 3 3 3 6 6 10 6 3
0 0 0 0 0 3 3 3 0 0 6 6 6 10 10 6 0 0 0 0 0 0 0 0 0 0 0 0 0 0 0 0 0 0 0 0 0 0 0 0 3 3 3 6 6 6 6 6 3
0 0 0 0 0 0 0 0 0 0 3 3 6 6 6 3 0 0 0 0 0 0 0 0 0 0 0 0 0 0 0 0 0 0 0 0 0 0 0 3 0 3 3 6 6 6 0 0 0
0 0 0 0 0 0 0 0 0 0 3 3 3 6 6 3 3 0 0 0 0 0 0 0 0 0 0 0 0 0 0 0 0 0 0 0 0 0 0 3 3 3 10 6 6 6 0 0 0
0 0 0 0 0 0 0 0 0 0 0 0 3 3 3 6 3 0 0 0 0 0 0 0 0 0 0 0 0 0 0 0 0 0 0 0 0 0 0 0 3 3 3 10 6 6 3 3 0
0 0 0 0 0 0 0 0 0 0 0 0 0 0 3 3 6 0 0 0 0 0 0 0 0 0 0 0 0 0 0 0 0 0 0 0 0 0 0 0 0 3 3 3 3 3 6 3 0
0 0 0 0 0 0 0 0 0 0 0 0 0 0 0 3 6 3 3 0 0 0 0 0 0 0 0 0 0 0 0 0 0 0 0 0 0 0 0 0 0 0 0 3 0 0 3 3 0
0 0 0 0 0 0 0 0 0 0 0 0 0 0 0 3 3 3 0 0 0 0 0 0 0 0 0 0 0 0 0 0 0 0 0 0 0 0 0 0 0 0 0 0 3 3 3 0 0
0 0 0 0 0 0 0 0 0 0 0 0 0 0 0 3 0 0 0 0 0 0 0 0 0 0 0 0 0 0 0 0 0 0 0 0 0 0 0 0 0 0 0 0 3 3 3 0 0
0 0 0 0 0 0 0 0 0 0 0 0 0 0 0 3 3 0 0 0 0 0 0 0 0 0 0 0 0 0 0 0 0 0 0 0 0 0 0 0 0 0 0 0 0 0 0 0 0
0 0 0 0 0 0 0 0 0 0 0 0 0 0 0 0 0 0 0 0 0 0 0 0 0 0 0 0 0 0 0 0 0 0 0 0 0 0 0 0 0 0 0 0 0 0 0 0 0
0 0 0 0 0 0 0 0 0 0 0 0 0 0 0 0 0 0 0 0 0 0 0 0 0 0 0 0 0 0 0 0 0 0 0 0 0 0 0 0 0 0 0 0 0 0 0 0 0
0 0 0 0 0 0 0 0 0 0 0 0 0 0 0 0 0 0 0 0 0 0 0 0 0 0 0 0 0 0 0 0 0 0 0 0 0 0 0 0 0 0 0 0 0 0 0 0 0
0 0 0 0 0 0 0 0 0 0 0 0 0 0 0 0 0 0 0 0 0 0 0 0 0 0 0 0 0 0 0 0 0 0 0 0 0 0 0 0 0 0 0 0 0 0 0 0 0

GEFSSGP_con_cape1000_102.txt.gz
Probability
84 81 87 84 74 48 0 0 0 0 0 0 0 0 0 3 16 35 45 39 39 42 45 68 74 68 58 55 61 61 58 48 52 55 58 61 68 81 77 74 71 74 74 68 74 77 71 74 68
84 84 90 81 65 10 0 0 0 0 0 0 0 0 0 3 23 35 35 32 42 29 45 42 65 68 58 42 39 35 42 42 39 42 39 42 55 61 58 65 65 68 77 68 74 71 77 61 65
77 84 87 77 39 0 0 0 3 0 0 0 0 0 3 3 10 32 39 23 29 29 29 39 45 45 32 23 29 16 16 16 26 39 26 29 42 55 58 48 58 61 65 61 61 71 68 71 71
87 90 81 61 3 0 0 0 0 0 0 0 0 3 3 10 19 19 19 10 10 19 16 26 29 35 26 23 16 19 16 13 10 16 23 19 32 39 35 48 45 48 61 52 55 58 48 52 58
100 90 65 26 0 0 0 0 0 0 0 0 0 6 6 16 13 16 16 13 10 13 16 13 29 19 16 19 16 10 13 13 6 10 16 16 19 23 23 29 39 42 39 39 42 52 52 52 58
97 100 48 3 0 0 0 0 0 0 0 0 0 10 16 13 16 13 10 13 13 13 13 10 29 19 16 6 6 6 0 0 3 6 6 13 19 23 26 23 29 35 32 35 42 45 39 45 48
97 90 16 0 3 0 0 0 0 0 0 0 0 10 16 16 13 10 10 10 6 10 6 6 6 10 13 13 6 3 3 3 3 3 3 0 6 29 29 23 26 19 23 29 39 42 35 48 48
97 87 16 3 0 0 0 0 0 0 0 0 0 0 16 16 13 13 10 10 10 6 3 6 6 3 0 0 0 0 0 0 0 0 0 3 6 10 19 19 29 29 23 29 39 39 39 48 45
90 81 13 0 3 3 0 0 0 0 0 0 0 3 16 13 10 10 10 10 6 3 3 3 0 0 0 0 0 0 0 0 0 0 3 10 0 3 10 16 19 16 23 23 19 35 42 48 35
94 55 6 6 0 3 0 0 0 0 0 0 0 3 6 6 6 3 3 3 0 0 0 0 0 0 0 0 0 3 0 3 3 0 0 0 0 0 0 10 16 6 19 23 23 26 32 32 23
74 52 26 6 0 0 0 3 3 0 0 0 0 3 3 3 3 3 3 3 0 0 0 0 0 0 0 0 0 0 0 0 0 0 0 0 0 0 0 0 6 6 10 3 3 13 10 10 3
71 52 29 3 0 0 0 0 3 3 0 0 3 3 3 3 3 3 3 3 0 0 0 0 0 0 0 0 0 0 0 0 0 0 0 0 0 0 0 3 0 3 3 3 0 0 6 6 3
55 35 23 16 3 0 3 3 6 0 0 0 3 3 3 6 6 3 3 0 0 0 0 0 0 0 0 0 0 0 0 0 0 0 0 0 0 0 0 0 0 0 3 3 3 3 3 3 0
48 42 26 13 6 0 3 3 3 6 0 0 3 3 3 6 3 3 3 0 0 0 0 0 0 0 0 0 0 0 0 0 0 0 0 0 0 0 0 0 0 0 0 0 3 3 0 3 3
42 29 13 19 13 3 0 0 0 6 3 3 3 3 3 3 3 3 0 0 0 0 0 0 0 0 0 0 0 0 0 0 0 0 0 0 0 0 0 0 0 0 0 0 0 0 0 0 3
13 16 16 16 10 6 0 0 0 3 6 10 6 6 6 3 3 3 0 0 0 0 0 0 0 0 0 0 0 0 0 0 0 0 0 0 0 0 0 0 0 0 0 0 0 0 0 0 3
6 3 0 3 10 0 0 0 6 0 0 10 10 10 6 3 3 3 0 0 0 0 0 0 0 0 0 0 0 0 0 0 0 0 0 0 0 0 0 3 0 0 0 0 0 0 0 0 0
0 0 0 0 0 0 0 0 0 0 3 3 10 10 10 6 6 3 3 0 0 0 0 0 0 0 0 0 0 0 0 0 0 0 0 0 0 0 3 3 3 0 0 0 0 0 0 0 0
0 0 0 0 0 0 0 0 0 3 3 6 6 6 6 6 6 3 3 0 0 0 0 0 0 0 0 0 0 0 0 0 0 0 0 0 0 3 0 0 0 0 0 0 0 0 3 3 0
0 0 0 0 0 0 0 0 0 0 0 3 3 3 6 6 6 3 3 0 0 0 0 0 0 0 0 0 0 0 0 0 0 0 0 0 0 0 0 0 0 0 0 6 3 3 0 0 0
0 0 0 0 0 0 0 0 0 0 0 0 3 3 3 6 6 3 3 0 0 0 0 0 0 0 0 0 0 0 0 0 0 0 0 0 0 0 0 0 0 3 3 3 3 3 0 0 0
0 0 0 0 0 0 0 0 0 0 0 0 0 3 3 3 6 3 0 0 0 0 0 0 0 0 0 0 0 0 0 0 0 0 0 0 0 0 0 0 0 3 3 3 0 0 0 0 0
0 0 0 0 0 0 0 0 0 0 0 0 0 3 3 3 6 3 0 0 0 0 0 0 0 0 0 0 0 0 0 0 0 0 0 0 0 0 0 0 0 0 3 3 3 0 0 0 0
0 0 0 0 0 0 0 0 0 0 0 0 0 0 3 3 6 6 3 0 0 0 0 0 0 0 0 0 0 0 0 0 0 0 0 0 0 0 0 0 0 0 0 3 0 3 0 3 3
0 0 0 0 0 0 0 0 0 0 0 0 0 0 0 0 6 6 3 0 0 0 0 0 0 0 0 0 0 0 0 0 0 0 0 0 0 0 0 0 0 0 0 0 0 0 0 3 0
0 0 0 0 0 0 0 0 0 0 0 0 0 0 0 0 6 6 6 3 0 0 0 0 0 0 0 0 0 0 0 0 0 0 0 0 0 0 0 0 0 0 0 0 0 0 0 0 0
0 0 0 0 0 0 0 0 0 0 0 0 0 0 0 0 6 3 3 6 0 0 0 0 0 0 0 0 0 0 0 0 0 0 0 0 0 0 0 0 0 0 0 0 0 0 0 0 0
0 0 0 0 0 0 0 0 0 0 0 0 0 0 0 0 3 3 0 3 0 0 0 0 0 0 0 0 0 0 0 0 0 0 0 0 0 0 0 0 0 0 0 0 0 0 0 0 0
0 0 0 0 0 0 0 0 0 0 0 0 0 0 0 0 0 0 0 0 0 0 0 0 0 0 0 0 0 0 0 0 0 0 0 0 0 0 0 0 0 0 0 0 0 0 0 0 0
0 0 0 0 0 0 0 0 0 0 0 0 0 0 0 0 0 0 0 0 0 0 0 0 0 0 0 0 0 0 0 0 0 0 0 0 0 0 0 0 0 0 0 0 0 0 0 0 0

GEFSSGP_con_cape1000_108.txt.gz
Probability
87 65 39 29 10 0 0 0 0 0 0 0 0 0 6 3 0 0 0 16 23 42 68 71 77 84 74 65 65 58 52 58 55 58 65 65 68 68 68 74 77 77 74 77 74 74 65 68 65
65 55 39 13 0 0 0 0 0 0 0 0 0 0 3 3 3 0 0 19 23 35 52 52 61 68 61 61 58 52 42 39 32 45 42 48 45 42 52 58 58 68 68 61 77 74 74 74 65
61 58 32 0 0 0 0 0 0 0 0 0 0 0 3 3 3 3 10 23 26 26 35 58 61 55 45 32 23 23 23 26 29 29 29 32 32 35 35 35 52 55 58 61 61 61 58 58 65
58 32 10 0 0 0 0 0 0 0 0 0 0 0 3 3 3 3 16 16 16 19 26 35 48 42 29 26 23 19 19 16 19 19 19 16 13 32 29 29 35 65 61 61 55 52 52 52 48
35 23 0 0 0 0 0 0 0 0 0 0 0 0 3 3 3 10 13 13 3 10 19 29 42 32 23 19 16 19 10 13 3 6 13 13 10 10 16 16 35 42 42 45 45 55 39 35 39
23 0 0 0 0 0 0 0 0 0 0 0 0 3 3 6 3 6 6 6 6 6 10 13 29 26 26 16 13 13 3 0 0 3 3 6 10 13 10 10 16 19 35 42 39 48 35 29 35
16 0 0 0 0 0 0 0 0 0 0 0 0 3 3 3 3 6 6 6 3 6 10 10 13 13 23 16 6 6 3 3 3 0 0 3 6 10 10 16 19 23 29 39 35 32 32 32 42
13 0 0 0 0 0 0 0 0 0 0 0 0 0 3 3 3 3 3 0 0 0 3 0 3 6 6 3 10 3 0 3 3 3 6 6 6 0 6 6 19 23 19 19 32 45 45 35 45
19 3 0 0 0 0 0 0 0 0 0 0 3 0 3 3 3 3 0 0 0 0 0 0 0 0 0 0 0 0 3 3 3 3 3 3 0 0 0 0 13 23 26 19 23 32 45 42 35
13 3 0 0 0 0 0 0 0 0 3 0 3 3 3 3 3 3 3 0 0 0 0 0 0 0 0 0 0 0 0 0 0 0 0 0 0 0 0 0 0 13 16 19 16 23 35 23 6
19 0 0 0 3 0 0 0 0 0 0 0 3 3 3 3 3 3 3 0 0 0 0 0 0 0 0 0 0 0 0 0 0 0 0 0 0 0 0 0 0 0 0 0 0 3 3 0 6
19 13 6 6 10 0 0 0 0 0 0 0 0 3 3 3 3 3 0 0 0 0 0 0 0 0 0 0 0 0 0 0 0 0 0 0 0 0 0 0 0 0 0 0 0 0 0 0 0
13 6 6 3 3 0 0 0 0 0 0 3 0 3 3 3 3 3 0 0 0 0 0 0 0 0 0 0 0 0 0 0 0 0 0 0 0 0 0 0 0 0 0 0 0 0 0 0 0
3 6 3 0 0 0 0 0 0 0 0 0 3 3 3 3 3 3 3 0 0 0 0 0 0 0 0 0 0 0 0 0 0 0 0 0 0 0 0 0 0 0 0 0 0 0 0 0 0
6 0 0 0 0 0 0 0 0 0 0 0 3 3 3 3 3 3 3 0 0 0 0 0 0 0 0 0 0 0 0 0 0 0 0 0 0 0 0 0 0 0 0 0 0 0 0 0 0
0 0 0 0 0 0 0 0 0 0 0 0 0 3 3 3 3 3 3 0 0 0 0 0 0 0 0 0 0 0 0 0 0 0 0 0 0 0 0 0 0 0 0 0 0 0 0 0 0
0 0 0 0 0 0 0 0 0 0 0 0 3 3 3 3 3 3 3 0 0 0 0 0 0 0 0 0 0 0 0 0 0 0 0 0 0 0 0 0 0 0 0 0 0 0 0 0 0
0 0 0 0 0 0 0 0 0 0 0 0 3 3 3 3 3 3 3 0 0 0 0 0 0 0 0 0 0 0 0 0 0 0 0 0 0 0 0 0 0 0 0 0 0 0 0 0 0
0 0 0 0 0 0 0 0 0 0 0 0 0 3 3 3 3 3 3 0 0 0 0 0 0 0 0 0 0 0 0 0 0 0 0 0 0 0 0 0 0 0 0 0 0 0 0 0 0
0 0 0 0 0 0 0 0 0 0 0 0 0 3 3 3 3 3 3 0 0 0 0 0 0 0 0 0 0 0 0 0 0 0 0 0 0 0 0 0 0 0 0 0 0 0 0 0 0
0 0 0 0 0 0 0 0 0 0 0 0 0 0 3 3 3 3 3 0 0 0 0 0 0 0 0 0 0 0 0 0 0 0 0 0 0 0 0 0 0 0 0 0 0 0 0 0 0
0 0 0 0 0 0 0 0 0 0 0 0 0 0 3 3 3 3 3 0 0 0 0 0 0 0 0 0 0 0 0 0 0 0 0 0 0 0 0 0 0 0 0 0 0 0 0 0 0
0 0 0 0 0 0 0 0 0 0 0 0 0 0 0 3 3 3 3 0 0 0 0 0 0 0 0 0 0 0 0 0 0 0 0 0 0 0 0 0 0 0 0 0 0 0 0 0 0
0 0 0 0 0 0 0 0 0 0 0 0 0 0 0 0 6 3 3 0 0 0 0 0 0 0 0 0 0 0 0 0 0 0 0 0 0 0 0 0 0 0 0 0 0 0 0 0 0
0 0 0 0 0 0 0 0 0 0 0 0 0 0 0 0 3 3 3 3 0 0 0 0 0 0 0 0 0 0 0 0 0 0 0 0 0 0 0 0 0 0 0 0 0 0 0 0 0
0 0 0 0 0 0 0 0 0 0 0 0 0 0 0 0 3 3 3 3 0 0 0 0 0 0 0 0 0 0 0 0 0 0 0 0 0 0 0 0 0 0 0 0 0 0 0 0 0
0 0 0 0 0 0 0 0 0 0 0 0 0 0 0 0 3 3 3 3 0 0 0 0 0 0 0 0 0 0 0 0 0 0 0 0 0 0 0 0 0 0 0 0 0 0 0 0 0
0 0 0 0 0 0 0 0 0 0 0 0 0 0 0 0 0 3 0 0 0 0 0 0 0 0 0 0 0 0 0 0 0 0 0 0 0 0 0 0 0 0 0 0 0 0 0 0 0
0 0 0 0 0 0 0 0 0 0 0 0 0 0 0 0 0 3 0 0 0 0 0 0 0 0 0 0 0 0 0 0 0 0 0 0 0 0 0 0 0 0 0 0 0 0 0 0 0
0 0 0 0 0 0 0 0 0 0 0 0 0 0 0 0 0 0 0 0 0 0 0 0 0 0 0 0 0 0 0 0 0 0 0 0 0 0 0 0 0 0 0 0 0 0 0 0 0